Wetterdaten: Montag, 05.06.2023
Datum Zeit Temp. 2m Temp +5 cm Feuchte A. Luftdruck Regen Wind Richtung Richtung Sonnenschein UV Solar Taupunkt Windchill Windben
05.06.2023 00:00 12,8 C 7,8 C 62 % 1021,7 hPa 0,0 l/m 2,6 km/h (1 Bft) N 355 0 min 0,0 UV-I 0 W/m 5,7 C 12,8 C 3,2 km/h (1 Bft)
05.06.2023 00:03 12,8 C 7,8 C 62 % 1021,7 hPa 0,0 l/m 3,4 km/h (1 Bft) N 355 0 min 0,0 UV-I 0 W/m 5,7 C 12,8 C 4,8 km/h (1 Bft)
05.06.2023 00:06 12,4 C 7,8 C 63 % 1021,7 hPa 0,0 l/m 4,3 km/h (1 Bft) N 11 0 min 0,0 UV-I 0 W/m 5,6 C 12,4 C 6,4 km/h (2 Bft)
05.06.2023 00:09 11,5 C 7,2 C 66 % 1021,7 hPa 0,0 l/m 3,2 km/h (1 Bft) N 11 0 min 0,0 UV-I 0 W/m 5,4 C 11,5 C 4,8 km/h (1 Bft)
05.06.2023 00:12 11,2 C 6,7 C 67 % 1021,7 hPa 0,0 l/m 3,3 km/h (1 Bft) N 11 0 min 0,0 UV-I 0 W/m 5,3 C 11,2 C 4,8 km/h (1 Bft)
05.06.2023 00:15 11,2 C 6,7 C 68 % 1021,7 hPa 0,0 l/m 2,8 km/h (1 Bft) N 11 0 min 0,0 UV-I 0 W/m 5,5 C 11,2 C 4,8 km/h (1 Bft)
05.06.2023 00:18 10,8 C 6,7 C 68 % 1021,7 hPa 0,0 l/m 1,6 km/h (1 Bft) N 11 0 min 0,0 UV-I 0 W/m 5,1 C 10,8 C 4,8 km/h (1 Bft)
05.06.2023 00:21 10,5 C 6,1 C 70 % 1021,6 hPa 0,0 l/m 2,4 km/h (1 Bft) N 11 0 min 0,0 UV-I 0 W/m 5,3 C 10,5 C 4,8 km/h (1 Bft)
05.06.2023 00:24 10,6 C 6,1 C 70 % 1021,7 hPa 0,0 l/m 1,4 km/h (1 Bft) N 11 0 min 0,0 UV-I 0 W/m 5,4 C 10,6 C 3,2 km/h (1 Bft)
05.06.2023 00:27 10,4 C 6,1 C 70 % 1021,7 hPa 0,0 l/m 0,0 km/h (0 Bft) N 11 0 min 0,0 UV-I 0 W/m 5,2 C 10,4 C 1,6 km/h (1 Bft)
05.06.2023 00:30 10,4 C 6,1 C 70 % 1021,7 hPa 0,0 l/m 2,4 km/h (1 Bft) N 11 0 min 0,0 UV-I 0 W/m 5,2 C 10,4 C 4,8 km/h (1 Bft)
05.06.2023 00:33 9,9 C 6,1 C 72 % 1021,7 hPa 0,0 l/m 0,1 km/h (0 Bft) N 11 0 min 0,0 UV-I 0 W/m 5,1 C 9,9 C 3,2 km/h (1 Bft)
05.06.2023 00:36 9,8 C 6,1 C 72 % 1021,8 hPa 0,0 l/m 0,6 km/h (0 Bft) N 11 0 min 0,0 UV-I 0 W/m 5,0 C 9,8 C 1,6 km/h (1 Bft)
05.06.2023 00:39 9,8 C 6,1 C 71 % 1021,8 hPa 0,0 l/m 0,5 km/h (0 Bft) N 11 0 min 0,0 UV-I 0 W/m 4,8 C 9,8 C 1,6 km/h (1 Bft)
05.06.2023 00:42 9,3 C 5,6 C 74 % 1021,8 hPa 0,0 l/m 0,0 km/h (0 Bft) N 11 0 min 0,0 UV-I 0 W/m 4,9 C 9,3 C 0,0 km/h (0 Bft)
05.06.2023 00:45 9,1 C 5,6 C 74 % 1021,8 hPa 0,0 l/m 0,0 km/h (0 Bft) N 11 0 min 0,0 UV-I 0 W/m 4,7 C 9,1 C 0,0 km/h (0 Bft)
05.06.2023 00:48 9,1 C 5,6 C 75 % 1021,8 hPa 0,0 l/m 0,0 km/h (0 Bft) N 11 0 min 0,0 UV-I 0 W/m 4,9 C 9,1 C 0,0 km/h (0 Bft)
05.06.2023 00:51 8,8 C 5,6 C 75 % 1021,8 hPa 0,0 l/m 0,0 km/h (0 Bft) N 11 0 min 0,0 UV-I 0 W/m 4,6 C 8,8 C 0,0 km/h (0 Bft)
05.06.2023 00:54 8,6 C 5,6 C 75 % 1021,8 hPa 0,0 l/m 0,0 km/h (0 Bft) N 11 0 min 0,0 UV-I 0 W/m 4,4 C 8,6 C 0,0 km/h (0 Bft)
05.06.2023 00:57 8,7 C 5,6 C 76 % 1021,8 hPa 0,0 l/m 0,0 km/h (0 Bft) N 11 0 min 0,0 UV-I 0 W/m 4,7 C 8,7 C 0,0 km/h (0 Bft)
05.06.2023 01:00 8,6 C 5,0 C 75 % 1021,7 hPa 0,0 l/m 0,0 km/h (0 Bft) N 11 0 min 0,0 UV-I 0 W/m 4,4 C 8,6 C 0,0 km/h (0 Bft)
05.06.2023 01:03 8,4 C 5,0 C 76 % 1021,7 hPa 0,0 l/m 0,0 km/h (0 Bft) N 11 0 min 0,0 UV-I 0 W/m 4,4 C 8,4 C 0,0 km/h (0 Bft)
05.06.2023 01:06 8,3 C 5,0 C 76 % 1021,8 hPa 0,0 l/m 1,2 km/h (1 Bft) N 11 0 min 0,0 UV-I 0 W/m 4,3 C 8,3 C 3,2 km/h (1 Bft)
05.06.2023 01:09 8,5 C 5,0 C 76 % 1021,7 hPa 0,0 l/m 2,8 km/h (1 Bft) N 11 0 min 0,0 UV-I 0 W/m 4,5 C 8,5 C 4,8 km/h (1 Bft)
05.06.2023 01:12 8,7 C 5,0 C 75 % 1021,8 hPa 0,0 l/m 2,0 km/h (1 Bft) N 11 0 min 0,0 UV-I 0 W/m 4,5 C 8,7 C 3,2 km/h (1 Bft)
05.06.2023 01:15 8,7 C 5,0 C 75 % 1021,8 hPa 0,0 l/m 1,1 km/h (1 Bft) N 11 0 min 0,0 UV-I 0 W/m 4,5 C 8,7 C 3,2 km/h (1 Bft)
05.06.2023 01:18 8,8 C 5,6 C 75 % 1021,7 hPa 0,0 l/m 1,3 km/h (1 Bft) N 11 0 min 0,0 UV-I 0 W/m 4,6 C 8,8 C 3,2 km/h (1 Bft)
05.06.2023 01:21 8,9 C 5,6 C 75 % 1021,7 hPa 0,0 l/m 3,0 km/h (1 Bft) N 11 0 min 0,0 UV-I 0 W/m 4,7 C 8,9 C 4,8 km/h (1 Bft)
05.06.2023 01:24 8,7 C 5,6 C 75 % 1021,8 hPa 0,0 l/m 2,7 km/h (1 Bft) N 11 0 min 0,0 UV-I 0 W/m 4,5 C 8,7 C 4,8 km/h (1 Bft)
05.06.2023 01:27 8,2 C 5,0 C 75 % 1021,7 hPa 0,0 l/m 0,5 km/h (0 Bft) N 11 0 min 0,0 UV-I 0 W/m 4,0 C 8,2 C 1,6 km/h (1 Bft)
05.06.2023 01:30 7,8 C 5,0 C 76 % 1021,7 hPa 0,0 l/m 0,1 km/h (0 Bft) N 11 0 min 0,0 UV-I 0 W/m 3,8 C 7,8 C 1,6 km/h (1 Bft)
05.06.2023 01:33 7,7 C 5,0 C 77 % 1021,8 hPa 0,0 l/m 1,6 km/h (1 Bft) N 11 0 min 0,0 UV-I 0 W/m 3,9 C 7,7 C 3,2 km/h (1 Bft)
05.06.2023 01:36 7,8 C 4,4 C 78 % 1021,8 hPa 0,0 l/m 2,7 km/h (1 Bft) N 11 0 min 0,0 UV-I 0 W/m 4,2 C 7,8 C 3,2 km/h (1 Bft)
05.06.2023 01:39 8,1 C 5,0 C 77 % 1021,8 hPa 0,0 l/m 2,5 km/h (1 Bft) N 11 0 min 0,0 UV-I 0 W/m 4,3 C 8,1 C 4,8 km/h (1 Bft)
05.06.2023 01:42 8,3 C 5,0 C 76 % 1021,9 hPa 0,0 l/m 3,3 km/h (1 Bft) N 5 0 min 0,0 UV-I 0 W/m 4,3 C 8,3 C 4,8 km/h (1 Bft)
05.06.2023 01:45 8,2 C 5,0 C 76 % 1021,8 hPa 0,0 l/m 3,8 km/h (1 Bft) N 5 0 min 0,0 UV-I 0 W/m 4,2 C 8,2 C 4,8 km/h (1 Bft)
05.06.2023 01:48 8,2 C 5,0 C 76 % 1021,8 hPa 0,0 l/m 3,6 km/h (1 Bft) N 5 0 min 0,0 UV-I 0 W/m 4,2 C 8,2 C 4,8 km/h (1 Bft)
05.06.2023 01:51 7,9 C 5,0 C 76 % 1021,9 hPa 0,0 l/m 3,1 km/h (1 Bft) N 5 0 min 0,0 UV-I 0 W/m 3,9 C 7,9 C 4,8 km/h (1 Bft)
05.06.2023 01:54 7,8 C 5,0 C 77 % 1021,8 hPa 0,0 l/m 2,5 km/h (1 Bft) N 5 0 min 0,0 UV-I 0 W/m 4,0 C 7,8 C 4,8 km/h (1 Bft)
05.06.2023 01:57 7,6 C 5,0 C 77 % 1021,8 hPa 0,0 l/m 0,7 km/h (0 Bft) N 5 0 min 0,0 UV-I 0 W/m 3,8 C 7,6 C 3,2 km/h (1 Bft)
05.06.2023 02:00 7,2 C 4,4 C 78 % 1021,8 hPa 0,0 l/m 0,5 km/h (0 Bft) N 5 0 min 0,0 UV-I 0 W/m 3,6 C 7,2 C 1,6 km/h (1 Bft)
05.06.2023 02:03 7,1 C 4,4 C 79 % 1021,9 hPa 0,0 l/m 2,4 km/h (1 Bft) N 5 0 min 0,0 UV-I 0 W/m 3,7 C 7,1 C 3,2 km/h (1 Bft)
05.06.2023 02:06 7,3 C 4,4 C 79 % 1021,8 hPa 0,0 l/m 1,2 km/h (1 Bft) N 5 0 min 0,0 UV-I 0 W/m 3,9 C 7,3 C 3,2 km/h (1 Bft)
05.06.2023 02:09 7,5 C 4,4 C 78 % 1021,9 hPa 0,0 l/m 1,7 km/h (1 Bft) N 5 0 min 0,0 UV-I 0 W/m 3,9 C 7,5 C 3,2 km/h (1 Bft)
05.06.2023 02:12 7,6 C 4,4 C 78 % 1021,8 hPa 0,0 l/m 0,2 km/h (0 Bft) N 5 0 min 0,0 UV-I 0 W/m 4,0 C 7,6 C 1,6 km/h (1 Bft)
05.06.2023 02:15 7,6 C 4,4 C 78 % 1021,7 hPa 0,0 l/m 0,0 km/h (0 Bft) N 5 0 min 0,0 UV-I 0 W/m 4,0 C 7,6 C 0,0 km/h (0 Bft)
05.06.2023 02:18 7,2 C 4,4 C 78 % 1021,8 hPa 0,0 l/m 0,0 km/h (0 Bft) N 5 0 min 0,0 UV-I 0 W/m 3,6 C 7,2 C 0,0 km/h (0 Bft)
05.06.2023 02:21 6,8 C 4,4 C 79 % 1021,6 hPa 0,0 l/m 0,0 km/h (0 Bft) N 5 0 min 0,0 UV-I 0 W/m 3,4 C 6,8 C 0,0 km/h (0 Bft)
05.06.2023 02:24 6,8 C 3,9 C 80 % 1021,7 hPa 0,0 l/m 0,0 km/h (0 Bft) N 5 0 min 0,0 UV-I 0 W/m 3,6 C 6,8 C 0,0 km/h (0 Bft)
05.06.2023 02:27 6,7 C 3,9 C 80 % 1021,6 hPa 0,0 l/m 0,0 km/h (0 Bft) N 5 0 min 0,0 UV-I 0 W/m 3,5 C 6,7 C 0,0 km/h (0 Bft)
05.06.2023 02:30 6,9 C 3,9 C 80 % 1021,6 hPa 0,0 l/m 0,0 km/h (0 Bft) N 5 0 min 0,0 UV-I 0 W/m 3,7 C 6,9 C 0,0 km/h (0 Bft)
05.06.2023 02:33 7,0 C 3,9 C 80 % 1021,6 hPa 0,0 l/m 0,1 km/h (0 Bft) N 5 0 min 0,0 UV-I 0 W/m 3,8 C 7,0 C 1,6 km/h (1 Bft)
05.06.2023 02:36 6,8 C 3,9 C 79 % 1021,7 hPa 0,0 l/m 0,3 km/h (0 Bft) N 5 0 min 0,0 UV-I 0 W/m 3,4 C 6,8 C 1,6 km/h (1 Bft)
05.06.2023 02:39 6,4 C 3,9 C 80 % 1021,7 hPa 0,0 l/m 0,4 km/h (0 Bft) N 5 0 min 0,0 UV-I 0 W/m 3,2 C 6,4 C 1,6 km/h (1 Bft)
05.06.2023 02:42 6,2 C 3,9 C 81 % 1021,7 hPa 0,0 l/m 0,0 km/h (0 Bft) N 5 0 min 0,0 UV-I 0 W/m 3,2 C 6,2 C 0,0 km/h (0 Bft)
05.06.2023 02:45 6,1 C 3,3 C 82 % 1021,6 hPa 0,0 l/m 0,0 km/h (0 Bft) N 5 0 min 0,0 UV-I 0 W/m 3,3 C 6,1 C 0,0 km/h (0 Bft)
05.06.2023 02:48 5,9 C 3,3 C 82 % 1021,8 hPa 0,0 l/m 0,0 km/h (0 Bft) N 5 0 min 0,0 UV-I 0 W/m 3,1 C 5,9 C 0,0 km/h (0 Bft)
05.06.2023 02:51 5,8 C 3,3 C 83 % 1021,7 hPa 0,0 l/m 0,0 km/h (0 Bft) N 5 0 min 0,0 UV-I 0 W/m 3,1 C 5,8 C 0,0 km/h (0 Bft)
05.06.2023 02:54 6,0 C 3,3 C 83 % 1021,6 hPa 0,0 l/m 0,4 km/h (0 Bft) N 5 0 min 0,0 UV-I 0 W/m 3,3 C 6,0 C 1,6 km/h (1 Bft)
05.06.2023 02:57 6,1 C 3,3 C 83 % 1021,7 hPa 0,0 l/m 0,3 km/h (0 Bft) N 5 0 min 0,0 UV-I 0 W/m 3,4 C 6,1 C 1,6 km/h (1 Bft)
05.06.2023 03:00 6,1 C 3,3 C 83 % 1021,7 hPa 0,0 l/m 0,0 km/h (0 Bft) N 5 0 min 0,0 UV-I 0 W/m 3,4 C 6,1 C 1,6 km/h (1 Bft)
05.06.2023 03:03 6,1 C 3,3 C 83 % 1021,7 hPa 0,0 l/m 0,0 km/h (0 Bft) N 5 0 min 0,0 UV-I 0 W/m 3,4 C 6,1 C 0,0 km/h (0 Bft)
05.06.2023 03:06 6,0 C 3,3 C 83 % 1021,7 hPa 0,0 l/m 0,0 km/h (0 Bft) N 5 0 min 0,0 UV-I 0 W/m 3,3 C 6,0 C 0,0 km/h (0 Bft)
05.06.2023 03:09 5,8 C 3,3 C 83 % 1021,6 hPa 0,0 l/m 0,0 km/h (0 Bft) N 5 0 min 0,0 UV-I 0 W/m 3,1 C 5,8 C 0,0 km/h (0 Bft)
05.06.2023 03:12 5,7 C 3,3 C 83 % 1021,7 hPa 0,0 l/m 0,0 km/h (0 Bft) N 5 0 min 0,0 UV-I 0 W/m 3,0 C 5,7 C 0,0 km/h (0 Bft)
05.06.2023 03:15 5,5 C 3,3 C 83 % 1021,6 hPa 0,0 l/m 0,0 km/h (0 Bft) N 5 0 min 0,0 UV-I 0 W/m 2,8 C 5,5 C 0,0 km/h (0 Bft)
05.06.2023 03:18 5,4 C 3,3 C 84 % 1021,6 hPa 0,0 l/m 0,0 km/h (0 Bft) N 5 0 min 0,0 UV-I 0 W/m 2,9 C 5,4 C 0,0 km/h (0 Bft)
05.06.2023 03:21 5,4 C 3,3 C 84 % 1021,6 hPa 0,0 l/m 0,0 km/h (0 Bft) N 5 0 min 0,0 UV-I 0 W/m 2,9 C 5,4 C 0,0 km/h (0 Bft)
05.06.2023 03:24 5,2 C 2,8 C 84 % 1021,5 hPa 0,0 l/m 0,0 km/h (0 Bft) N 5 0 min 0,0 UV-I 0 W/m 2,7 C 5,2 C 0,0 km/h (0 Bft)
05.06.2023 03:27 5,2 C 2,8 C 84 % 1021,5 hPa 0,0 l/m 0,0 km/h (0 Bft) N 5 0 min 0,0 UV-I 0 W/m 2,7 C 5,2 C 0,0 km/h (0 Bft)
05.06.2023 03:30 5,3 C 2,8 C 85 % 1021,5 hPa 0,0 l/m 0,1 km/h (0 Bft) N 5 0 min 0,0 UV-I 0 W/m 3,0 C 5,3 C 1,6 km/h (1 Bft)
05.06.2023 03:33 5,3 C 2,8 C 85 % 1021,4 hPa 0,0 l/m 0,8 km/h (0 Bft) N 5 0 min 0,0 UV-I 0 W/m 3,0 C 5,3 C 3,2 km/h (1 Bft)
05.06.2023 03:36 5,1 C 2,8 C 85 % 1021,5 hPa 0,0 l/m 1,0 km/h (0 Bft) N 5 0 min 0,0 UV-I 0 W/m 2,8 C 5,1 C 1,6 km/h (1 Bft)
05.06.2023 03:39 5,0 C 2,8 C 85 % 1021,4 hPa 0,0 l/m 1,7 km/h (1 Bft) N 5 0 min 0,0 UV-I 0 W/m 2,7 C 5,0 C 3,2 km/h (1 Bft)
05.06.2023 03:42 4,9 C 2,8 C 85 % 1021,5 hPa 0,0 l/m 0,6 km/h (0 Bft) N 5 0 min 0,0 UV-I 0 W/m 2,6 C 4,9 C 1,6 km/h (1 Bft)
05.06.2023 03:45 4,8 C 2,8 C 84 % 1021,4 hPa 0,0 l/m 0,0 km/h (0 Bft) N 5 0 min 0,0 UV-I 0 W/m 2,3 C 4,8 C 0,0 km/h (0 Bft)
05.06.2023 03:48 4,9 C 2,8 C 85 % 1021,3 hPa 0,0 l/m 0,0 km/h (0 Bft) N 5 0 min 0,0 UV-I 0 W/m 2,6 C 4,9 C 0,0 km/h (0 Bft)
05.06.2023 03:51 5,1 C 2,8 C 86 % 1021,3 hPa 0,0 l/m 0,0 km/h (0 Bft) N 5 0 min 0,0 UV-I 0 W/m 3,0 C 5,1 C 0,0 km/h (0 Bft)
05.06.2023 03:54 5,2 C 2,8 C 85 % 1021,4 hPa 0,0 l/m 0,0 km/h (0 Bft) N 5 0 min 0,0 UV-I 0 W/m 2,9 C 5,2 C 0,0 km/h (0 Bft)
05.06.2023 03:57 5,1 C 2,8 C 85 % 1021,5 hPa 0,0 l/m 0,8 km/h (0 Bft) N 5 0 min 0,0 UV-I 0 W/m 2,8 C 5,1 C 3,2 km/h (1 Bft)
05.06.2023 04:00 5,0 C 2,8 C 85 % 1021,4 hPa 0,0 l/m 2,1 km/h (1 Bft) N 5 0 min 0,0 UV-I 0 W/m 2,7 C 5,0 C 3,2 km/h (1 Bft)
05.06.2023 04:03 4,9 C 2,8 C 85 % 1021,3 hPa 0,0 l/m 0,1 km/h (0 Bft) N 5 0 min 0,0 UV-I 0 W/m 2,6 C 4,9 C 1,6 km/h (1 Bft)
05.06.2023 04:06 4,8 C 2,8 C 85 % 1021,3 hPa 0,0 l/m 0,0 km/h (0 Bft) N 5 0 min 0,0 UV-I 0 W/m 2,5 C 4,8 C 0,0 km/h (0 Bft)
05.06.2023 04:09 4,8 C 2,8 C 85 % 1021,3 hPa 0,0 l/m 0,6 km/h (0 Bft) N 5 0 min 0,0 UV-I 0 W/m 2,5 C 4,8 C 3,2 km/h (1 Bft)
05.06.2023 04:12 4,9 C 2,8 C 85 % 1021,4 hPa 0,0 l/m 2,3 km/h (1 Bft) N 5 0 min 0,0 UV-I 0 W/m 2,6 C 4,9 C 3,2 km/h (1 Bft)
05.06.2023 04:15 5,1 C 2,8 C 86 % 1021,3 hPa 0,0 l/m 2,1 km/h (1 Bft) N 5 0 min 0,0 UV-I 0 W/m 3,0 C 5,1 C 3,2 km/h (1 Bft)
05.06.2023 04:18 5,2 C 2,8 C 85 % 1021,3 hPa 0,0 l/m 0,7 km/h (0 Bft) N 5 0 min 0,0 UV-I 0 W/m 2,9 C 5,2 C 1,6 km/h (1 Bft)
05.06.2023 04:21 5,4 C 2,8 C 86 % 1021,2 hPa 0,0 l/m 0,0 km/h (0 Bft) N 5 0 min 0,0 UV-I 0 W/m 3,3 C 5,4 C 0,0 km/h (0 Bft)
05.06.2023 04:24 5,4 C 3,3 C 85 % 1021,3 hPa 0,0 l/m 0,0 km/h (0 Bft) N 5 0 min 0,0 UV-I 0 W/m 3,1 C 5,4 C 0,0 km/h (0 Bft)
05.06.2023 04:27 4,9 C 3,3 C 84 % 1021,2 hPa 0,0 l/m 0,0 km/h (0 Bft) N 5 0 min 0,0 UV-I 0 W/m 2,4 C 4,9 C 0,0 km/h (0 Bft)
05.06.2023 04:30 4,5 C 2,8 C 84 % 1021,2 hPa 0,0 l/m 0,0 km/h (0 Bft) N 5 0 min 0,0 UV-I 0 W/m 2,0 C 4,5 C 0,0 km/h (0 Bft)
05.06.2023 04:33 4,4 C 2,8 C 85 % 1021,3 hPa 0,0 l/m 0,0 km/h (0 Bft) N 5 0 min 0,0 UV-I 0 W/m 2,1 C 4,4 C 0,0 km/h (0 Bft)
05.06.2023 04:36 4,5 C 2,8 C 86 % 1021,3 hPa 0,0 l/m 0,0 km/h (0 Bft) N 5 0 min 0,0 UV-I 0 W/m 2,4 C 4,5 C 0,0 km/h (0 Bft)
05.06.2023 04:39 4,7 C 2,8 C 86 % 1021,2 hPa 0,0 l/m 0,0 km/h (0 Bft) N 5 0 min 0,0 UV-I 0 W/m 2,6 C 4,7 C 0,0 km/h (0 Bft)
05.06.2023 04:42 4,9 C 2,8 C 87 % 1021,2 hPa 0,0 l/m 0,0 km/h (0 Bft) N 5 0 min 0,0 UV-I 0 W/m 2,9 C 4,9 C 0,0 km/h (0 Bft)
05.06.2023 04:45 5,4 C 2,8 C 86 % 1021,2 hPa 0,0 l/m 0,0 km/h (0 Bft) N 5 0 min 0,0 UV-I 0 W/m 3,3 C 5,4 C 0,0 km/h (0 Bft)
05.06.2023 04:48 5,3 C 2,2 C 85 % 1021,1 hPa 0,0 l/m 0,0 km/h (0 Bft) N 5 0 min 0,0 UV-I 0 W/m 3,0 C 5,3 C 0,0 km/h (0 Bft)
05.06.2023 04:51 5,1 C 2,2 C 85 % 1021,3 hPa 0,0 l/m 0,0 km/h (0 Bft) N 5 0 min 0,0 UV-I 0 W/m 2,8 C 5,1 C 0,0 km/h (0 Bft)
05.06.2023 04:54 4,9 C 2,2 C 85 % 1021,2 hPa 0,0 l/m 0,0 km/h (0 Bft) N 5 0 min 0,0 UV-I 0 W/m 2,6 C 4,9 C 0,0 km/h (0 Bft)
05.06.2023 04:57 4,9 C 2,2 C 86 % 1021,2 hPa 0,0 l/m 0,0 km/h (0 Bft) N 5 0 min 0,0 UV-I 0 W/m 2,8 C 4,9 C 0,0 km/h (0 Bft)
05.06.2023 05:00 4,9 C 2,2 C 86 % 1021,1 hPa 0,0 l/m 0,1 km/h (0 Bft) N 5 0 min 0,0 UV-I 0 W/m 2,8 C 4,9 C 1,6 km/h (1 Bft)
05.06.2023 05:03 4,9 C 2,2 C 86 % 1021,1 hPa 0,0 l/m 0,0 km/h (0 Bft) N 5 0 min 0,0 UV-I 0 W/m 2,8 C 4,9 C 0,0 km/h (0 Bft)
05.06.2023 05:06 4,8 C 2,8 C 85 % 1021,0 hPa 0,0 l/m 0,0 km/h (0 Bft) N 5 0 min 0,0 UV-I 0 W/m 2,5 C 4,8 C 0,0 km/h (0 Bft)
05.06.2023 05:09 4,4 C 2,8 C 85 % 1021,0 hPa 0,0 l/m 0,0 km/h (0 Bft) N 5 0 min 0,0 UV-I 0 W/m 2,1 C 4,4 C 0,0 km/h (0 Bft)
05.06.2023 05:12 4,3 C 2,2 C 86 % 1021,1 hPa 0,0 l/m 0,0 km/h (0 Bft) N 5 0 min 0,0 UV-I 0 W/m 2,2 C 4,3 C 0,0 km/h (0 Bft)
05.06.2023 05:15 4,4 C 2,2 C 87 % 1021,1 hPa 0,0 l/m 0,0 km/h (0 Bft) N 5 0 min 0,0 UV-I 0 W/m 2,4 C 4,4 C 0,0 km/h (0 Bft)
05.06.2023 05:18 4,4 C 2,2 C 86 % 1021,1 hPa 0,0 l/m 0,0 km/h (0 Bft) N 5 0 min 0,0 UV-I 0 W/m 2,3 C 4,4 C 0,0 km/h (0 Bft)
05.06.2023 05:21 4,4 C 2,2 C 87 % 1021,1 hPa 0,0 l/m 0,0 km/h (0 Bft) N 5 0 min 0,0 UV-I 0 W/m 2,4 C 4,4 C 0,0 km/h (0 Bft)
05.06.2023 05:24 4,6 C 2,8 C 87 % 1021,1 hPa 0,0 l/m 0,0 km/h (0 Bft) N 5 0 min 0,0 UV-I 0 W/m 2,6 C 4,6 C 0,0 km/h (0 Bft)
05.06.2023 05:27 4,6 C 2,8 C 87 % 1021,0 hPa 0,0 l/m 0,0 km/h (0 Bft) N 5 0 min 0,0 UV-I 0 W/m 2,6 C 4,6 C 0,0 km/h (0 Bft)
05.06.2023 05:30 4,5 C 2,2 C 87 % 1021,0 hPa 0,0 l/m 0,6 km/h (0 Bft) N 5 0 min 0,0 UV-I 0 W/m 2,5 C 4,5 C 1,6 km/h (1 Bft)
05.06.2023 05:33 4,2 C 2,2 C 86 % 1021,0 hPa 0,0 l/m 1,8 km/h (1 Bft) N 5 0 min 0,0 UV-I 0 W/m 2,1 C 4,2 C 3,2 km/h (1 Bft)
05.06.2023 05:36 3,9 C 2,2 C 86 % 1021,0 hPa 0,0 l/m 1,7 km/h (1 Bft) N 5 0 min 0,0 UV-I 5 W/m 1,8 C 3,9 C 3,2 km/h (1 Bft)
05.06.2023 05:39 4,1 C 2,2 C 87 % 1021,1 hPa 0,0 l/m 0,9 km/h (0 Bft) N 5 0 min 0,0 UV-I 6 W/m 2,1 C 4,1 C 3,2 km/h (1 Bft)
05.06.2023 05:42 4,1 C 2,8 C 87 % 1021,1 hPa 0,0 l/m 0,6 km/h (0 Bft) N 5 0 min 0,0 UV-I 7 W/m 2,1 C 4,1 C 1,6 km/h (1 Bft)
05.06.2023 05:45 4,2 C 2,2 C 87 % 1021,1 hPa 0,0 l/m 0,8 km/h (0 Bft) N 5 0 min 0,0 UV-I 9 W/m 2,2 C 4,2 C 1,6 km/h (1 Bft)
05.06.2023 05:48 4,3 C 2,2 C 87 % 1021,0 hPa 0,0 l/m 1,9 km/h (1 Bft) N 5 0 min 0,0 UV-I 11 W/m 2,3 C 4,3 C 3,2 km/h (1 Bft)
05.06.2023 05:51 4,4 C 2,2 C 87 % 1021,1 hPa 0,0 l/m 2,1 km/h (1 Bft) N 5 0 min 0,0 UV-I 11 W/m 2,4 C 4,4 C 3,2 km/h (1 Bft)
05.06.2023 05:54 4,6 C 2,2 C 87 % 1021,1 hPa 0,0 l/m 2,4 km/h (1 Bft) N 5 0 min 0,0 UV-I 12 W/m 2,6 C 4,6 C 3,2 km/h (1 Bft)
05.06.2023 05:57 4,6 C 2,8 C 86 % 1021,2 hPa 0,0 l/m 2,0 km/h (1 Bft) N 5 0 min 0,0 UV-I 14 W/m 2,5 C 4,6 C 3,2 km/h (1 Bft)
05.06.2023 06:00 4,7 C 2,8 C 87 % 1021,1 hPa 0,0 l/m 1,0 km/h (0 Bft) N 5 0 min 0,0 UV-I 15 W/m 2,7 C 4,7 C 1,6 km/h (1 Bft)
05.06.2023 06:03 4,9 C 2,8 C 87 % 1021,2 hPa 0,0 l/m 0,0 km/h (0 Bft) N 5 0 min 0,0 UV-I 17 W/m 2,9 C 4,9 C 0,0 km/h (0 Bft)
05.06.2023 06:06 5,1 C 2,8 C 87 % 1021,2 hPa 0,0 l/m 0,0 km/h (0 Bft) N 5 0 min 0,0 UV-I 18 W/m 3,1 C 5,1 C 0,0 km/h (0 Bft)
05.06.2023 06:09 5,1 C 2,8 C 87 % 1021,1 hPa 0,0 l/m 0,0 km/h (0 Bft) N 5 0 min 0,0 UV-I 19 W/m 3,1 C 5,1 C 0,0 km/h (0 Bft)
05.06.2023 06:12 5,0 C 3,3 C 86 % 1021,1 hPa 0,0 l/m 0,0 km/h (0 Bft) N 5 0 min 0,0 UV-I 21 W/m 2,9 C 5,0 C 0,0 km/h (0 Bft)
05.06.2023 06:15 5,0 C 3,3 C 86 % 1021,1 hPa 0,0 l/m 0,0 km/h (0 Bft) N 5 0 min 0,0 UV-I 24 W/m 2,9 C 5,0 C 0,0 km/h (0 Bft)
05.06.2023 06:18 5,2 C 3,3 C 87 % 1021,1 hPa 0,0 l/m 0,0 km/h (0 Bft) N 5 0 min 0,0 UV-I 27 W/m 3,2 C 5,2 C 0,0 km/h (0 Bft)
05.06.2023 06:21 5,4 C 3,3 C 87 % 1021,2 hPa 0,0 l/m 0,0 km/h (0 Bft) N 5 0 min 0,0 UV-I 31 W/m 3,4 C 5,4 C 0,0 km/h (0 Bft)
05.06.2023 06:24 5,6 C 3,3 C 86 % 1021,2 hPa 0,0 l/m 0,0 km/h (0 Bft) N 5 0 min 0,0 UV-I 35 W/m 3,4 C 5,6 C 0,0 km/h (0 Bft)
05.06.2023 06:27 5,4 C 3,3 C 86 % 1021,2 hPa 0,0 l/m 0,0 km/h (0 Bft) N 5 0 min 0,0 UV-I 40 W/m 3,3 C 5,4 C 0,0 km/h (0 Bft)
05.06.2023 06:30 5,3 C 3,9 C 86 % 1021,2 hPa 0,0 l/m 0,0 km/h (0 Bft) N 5 0 min 0,0 UV-I 45 W/m 3,2 C 5,3 C 0,0 km/h (0 Bft)
05.06.2023 06:33 5,4 C 3,9 C 86 % 1021,1 hPa 0,0 l/m 0,0 km/h (0 Bft) N 5 0 min 0,0 UV-I 49 W/m 3,3 C 5,4 C 0,0 km/h (0 Bft)
05.06.2023 06:36 5,6 C 3,9 C 86 % 1021,2 hPa 0,0 l/m 0,0 km/h (0 Bft) N 5 0 min 0,0 UV-I 54 W/m 3,4 C 5,6 C 0,0 km/h (0 Bft)
05.06.2023 06:39 5,8 C 4,4 C 86 % 1021,2 hPa 0,0 l/m 0,0 km/h (0 Bft) N 5 0 min 0,0 UV-I 60 W/m 3,6 C 5,8 C 0,0 km/h (0 Bft)
05.06.2023 06:42 5,8 C 4,4 C 85 % 1021,1 hPa 0,0 l/m 0,0 km/h (0 Bft) N 5 0 min 0,0 UV-I 64 W/m 3,5 C 5,8 C 0,0 km/h (0 Bft)
05.06.2023 06:45 5,8 C 4,4 C 85 % 1021,1 hPa 0,0 l/m 0,0 km/h (0 Bft) N 5 0 min 0,0 UV-I 70 W/m 3,5 C 5,8 C 0,0 km/h (0 Bft)
05.06.2023 06:48 5,9 C 4,4 C 85 % 1021,1 hPa 0,0 l/m 0,0 km/h (0 Bft) N 5 0 min 0,0 UV-I 77 W/m 3,6 C 5,9 C 0,0 km/h (0 Bft)
05.06.2023 06:51 6,1 C 5,0 C 85 % 1021,2 hPa 0,0 l/m 0,0 km/h (0 Bft) N 5 0 min 0,0 UV-I 83 W/m 3,8 C 6,1 C 0,0 km/h (0 Bft)
05.06.2023 06:54 6,3 C 5,0 C 85 % 1021,2 hPa 0,0 l/m 0,0 km/h (0 Bft) N 5 0 min 0,0 UV-I 89 W/m 4,0 C 6,3 C 0,0 km/h (0 Bft)
05.06.2023 06:57 6,4 C 5,6 C 84 % 1021,2 hPa 0,0 l/m 0,0 km/h (0 Bft) N 5 0 min 0,0 UV-I 95 W/m 3,9 C 6,4 C 0,0 km/h (0 Bft)
05.06.2023 07:00 6,7 C 6,1 C 84 % 1021,1 hPa 0,0 l/m 0,0 km/h (0 Bft) N 5 0 min 0,0 UV-I 103 W/m 4,2 C 6,7 C 0,0 km/h (0 Bft)
05.06.2023 07:01 6,7 C 6,1 C 84 % 1021,1 hPa 0,0 l/m 0,0 km/h (0 Bft) N 0 0 min 0,0 UV-I 107 W/m 4,2 C 6,7 C 0,0 km/h (0 Bft)
05.06.2023 07:03 6,8 C 6,7 C 84 % 1021,2 hPa 0,0 l/m 0,0 km/h (0 Bft) N 5 0 min 0,5 UV-I 113 W/m 4,3 C 6,8 C 0,0 km/h (0 Bft)
05.06.2023 07:06 7,2 C 7,2 C 84 % 1021,2 hPa 0,0 l/m 0,0 km/h (0 Bft) N 5 0 min 0,5 UV-I 117 W/m 4,7 C 7,2 C 0,0 km/h (0 Bft)
05.06.2023 07:09 7,4 C 7,8 C 83 % 1021,2 hPa 0,0 l/m 0,0 km/h (0 Bft) N 5 0 min 0,5 UV-I 124 W/m 4,7 C 7,4 C 0,0 km/h (0 Bft)
05.06.2023 07:12 7,6 C 7,8 C 82 % 1021,2 hPa 0,0 l/m 0,0 km/h (0 Bft) N 5 0 min 0,5 UV-I 125 W/m 4,7 C 7,6 C 0,0 km/h (0 Bft)
05.06.2023 07:15 7,8 C 8,3 C 81 % 1021,2 hPa 0,0 l/m 0,0 km/h (0 Bft) N 5 0 min 0,6 UV-I 124 W/m 4,7 C 7,8 C 0,0 km/h (0 Bft)
05.06.2023 07:18 8,0 C 8,9 C 81 % 1021,1 hPa 0,0 l/m 0,0 km/h (0 Bft) N 5 0 min 0,6 UV-I 127 W/m 4,9 C 8,0 C 0,0 km/h (0 Bft)
05.06.2023 07:21 8,2 C 8,9 C 81 % 1021,1 hPa 0,0 l/m 0,0 km/h (0 Bft) N 5 0 min 0,6 UV-I 135 W/m 5,1 C 8,2 C 0,0 km/h (0 Bft)
05.06.2023 07:24 8,4 C 9,4 C 80 % 1021,1 hPa 0,0 l/m 0,0 km/h (0 Bft) N 5 3 min 0,7 UV-I 150 W/m 5,2 C 8,4 C 0,0 km/h (0 Bft)
05.06.2023 07:27 8,6 C 9,4 C 79 % 1021,1 hPa 0,0 l/m 0,0 km/h (0 Bft) N 5 3 min 0,7 UV-I 168 W/m 5,2 C 8,6 C 0,0 km/h (0 Bft)
05.06.2023 07:30 8,8 C 9,4 C 79 % 1021,1 hPa 0,0 l/m 0,0 km/h (0 Bft) N 5 3 min 0,7 UV-I 180 W/m 5,4 C 8,8 C 0,0 km/h (0 Bft)
05.06.2023 07:33 8,9 C 10,0 C 78 % 1021,1 hPa 0,0 l/m 0,0 km/h (0 Bft) N 5 3 min 0,8 UV-I 189 W/m 5,3 C 8,9 C 0,0 km/h (0 Bft)
05.06.2023 07:36 9,2 C 10,6 C 78 % 1021,1 hPa 0,0 l/m 0,0 km/h (0 Bft) N 5 3 min 0,8 UV-I 198 W/m 5,6 C 9,2 C 0,0 km/h (0 Bft)
05.06.2023 07:39 9,4 C 10,6 C 78 % 1021,1 hPa 0,0 l/m 0,0 km/h (0 Bft) N 5 3 min 0,8 UV-I 205 W/m 5,8 C 9,4 C 0,0 km/h (0 Bft)
05.06.2023 07:42 9,7 C 10,6 C 77 % 1021,0 hPa 0,0 l/m 0,0 km/h (0 Bft) N 5 3 min 0,9 UV-I 215 W/m 5,9 C 9,7 C 0,0 km/h (0 Bft)
05.06.2023 07:45 9,9 C 10,6 C 77 % 1021,1 hPa 0,0 l/m 0,0 km/h (0 Bft) N 5 3 min 0,9 UV-I 225 W/m 6,1 C 9,9 C 0,0 km/h (0 Bft)
05.06.2023 07:48 10,3 C 10,6 C 77 % 1021,1 hPa 0,0 l/m 0,0 km/h (0 Bft) N 5 3 min 1,0 UV-I 235 W/m 6,4 C 10,3 C 0,0 km/h (0 Bft)
05.06.2023 07:51 10,6 C 11,1 C 76 % 1021,1 hPa 0,0 l/m 0,0 km/h (0 Bft) N 5 3 min 1,0 UV-I 242 W/m 6,5 C 10,6 C 0,0 km/h (0 Bft)
05.06.2023 07:54 10,8 C 11,1 C 75 % 1021,2 hPa 0,0 l/m 0,0 km/h (0 Bft) N 5 3 min 1,1 UV-I 250 W/m 6,5 C 10,8 C 0,0 km/h (0 Bft)
05.06.2023 07:57 11,1 C 11,7 C 75 % 1021,1 hPa 0,0 l/m 0,0 km/h (0 Bft) N 5 3 min 1,1 UV-I 259 W/m 6,8 C 11,1 C 0,0 km/h (0 Bft)
05.06.2023 08:00 11,5 C 12,2 C 75 % 1021,1 hPa 0,0 l/m 0,0 km/h (0 Bft) N 5 3 min 1,2 UV-I 267 W/m 7,2 C 11,5 C 0,0 km/h (0 Bft)
05.06.2023 08:03 11,8 C 13,3 C 74 % 1021,1 hPa 0,0 l/m 0,0 km/h (0 Bft) N 5 3 min 1,2 UV-I 276 W/m 7,3 C 11,8 C 0,0 km/h (0 Bft)
05.06.2023 08:07 12,7 C 13,9 C 69 % 1021,0 hPa 0,0 l/m 1,3 km/h (1 Bft) N 5 4 min 1,3 UV-I 287 W/m 7,2 C 12,7 C 4,8 km/h (1 Bft)
05.06.2023 08:09 13,0 C 14,4 C 69 % 1021,0 hPa 0,0 l/m 2,1 km/h (1 Bft) N 5 2 min 1,3 UV-I 295 W/m 7,4 C 13,0 C 3,2 km/h (1 Bft)
05.06.2023 08:12 13,3 C 15,0 C 68 % 1021,0 hPa 0,0 l/m 1,9 km/h (1 Bft) N 5 3 min 1,3 UV-I 302 W/m 7,5 C 13,3 C 3,2 km/h (1 Bft)
05.06.2023 08:15 13,7 C 15,0 C 67 % 1021,1 hPa 0,0 l/m 2,0 km/h (1 Bft) N 5 3 min 1,4 UV-I 311 W/m 7,7 C 13,7 C 4,8 km/h (1 Bft)
05.06.2023 08:18 13,8 C 15,0 C 65 % 1021,1 hPa 0,0 l/m 2,6 km/h (1 Bft) N 5 3 min 1,4 UV-I 319 W/m 7,3 C 13,8 C 4,8 km/h (1 Bft)
05.06.2023 08:21 13,9 C 14,4 C 65 % 1021,1 hPa 0,0 l/m 1,6 km/h (1 Bft) N 5 3 min 1,5 UV-I 325 W/m 7,4 C 13,9 C 3,2 km/h (1 Bft)
05.06.2023 08:24 14,1 C 14,4 C 63 % 1021,2 hPa 0,0 l/m 2,8 km/h (1 Bft) N 5 3 min 1,5 UV-I 335 W/m 7,2 C 14,1 C 4,8 km/h (1 Bft)
05.06.2023 08:27 14,3 C 15,0 C 66 % 1021,1 hPa 0,0 l/m 2,2 km/h (1 Bft) N 5 3 min 1,6 UV-I 341 W/m 8,0 C 14,3 C 4,8 km/h (1 Bft)
05.06.2023 08:30 14,4 C 15,0 C 64 % 1021,1 hPa 0,0 l/m 3,8 km/h (1 Bft) N-NO 19 3 min 1,6 UV-I 348 W/m 7,7 C 14,4 C 6,4 km/h (2 Bft)
05.06.2023 08:33 14,6 C 15,0 C 64 % 1021,1 hPa 0,0 l/m 3,9 km/h (1 Bft) N-NO 22 3 min 1,6 UV-I 357 W/m 7,9 C 14,6 C 6,4 km/h (2 Bft)
05.06.2023 08:36 14,8 C 15,6 C 62 % 1021,1 hPa 0,0 l/m 4,4 km/h (1 Bft) N-NO 22 3 min 1,7 UV-I 364 W/m 7,6 C 14,8 C 6,4 km/h (2 Bft)
05.06.2023 08:39 14,9 C 16,1 C 61 % 1021,1 hPa 0,0 l/m 4,7 km/h (1 Bft) N-NO 30 3 min 1,7 UV-I 373 W/m 7,4 C 14,9 C 6,4 km/h (2 Bft)
05.06.2023 08:42 15,1 C 16,1 C 60 % 1021,1 hPa 0,0 l/m 4,7 km/h (1 Bft) N-NO 28 3 min 1,8 UV-I 381 W/m 7,4 C 15,1 C 6,4 km/h (2 Bft)
05.06.2023 08:45 15,2 C 16,7 C 61 % 1021,2 hPa 0,0 l/m 5,1 km/h (1 Bft) N-NO 27 3 min 1,8 UV-I 389 W/m 7,7 C 15,2 C 6,4 km/h (2 Bft)
05.06.2023 08:48 15,4 C 17,2 C 62 % 1021,1 hPa 0,0 l/m 3,8 km/h (1 Bft) N-NO 23 3 min 1,9 UV-I 397 W/m 8,2 C 15,4 C 6,4 km/h (2 Bft)
05.06.2023 08:51 15,6 C 17,8 C 61 % 1021,1 hPa 0,0 l/m 3,2 km/h (1 Bft) N-NO 23 3 min 1,9 UV-I 405 W/m 8,1 C 15,6 C 4,8 km/h (1 Bft)
05.06.2023 08:54 15,8 C 18,3 C 61 % 1021,1 hPa 0,0 l/m 4,1 km/h (1 Bft) O-NO 65 3 min 2,0 UV-I 413 W/m 8,3 C 15,8 C 6,4 km/h (2 Bft)
05.06.2023 08:57 16,0 C 17,8 C 59 % 1021,2 hPa 0,0 l/m 5,5 km/h (1 Bft) NO 56 3 min 2,1 UV-I 421 W/m 8,0 C 16,0 C 9,7 km/h (2 Bft)
05.06.2023 09:00 16,1 C 18,3 C 58 % 1021,1 hPa 0,0 l/m 7,4 km/h (2 Bft) N-NO 32 3 min 2,1 UV-I 430 W/m 7,8 C 15,6 C 9,7 km/h (2 Bft)
05.06.2023 09:03 16,3 C 18,3 C 58 % 1021,2 hPa 0,0 l/m 6,3 km/h (2 Bft) O-NO 63 3 min 2,2 UV-I 437 W/m 8,0 C 16,3 C 9,7 km/h (2 Bft)
05.06.2023 09:06 16,4 C 18,3 C 56 % 1021,2 hPa 0,0 l/m 5,1 km/h (1 Bft) O-NO 63 3 min 2,2 UV-I 446 W/m 7,6 C 16,4 C 8,0 km/h (2 Bft)
05.06.2023 09:09 16,6 C 18,3 C 58 % 1021,2 hPa 0,0 l/m 6,6 km/h (2 Bft) O-NO 76 3 min 2,3 UV-I 454 W/m 8,3 C 16,5 C 11,3 km/h (2 Bft)
05.06.2023 09:12 16,8 C 18,3 C 56 % 1021,1 hPa 0,0 l/m 6,2 km/h (2 Bft) O-NO 68 3 min 2,3 UV-I 462 W/m 8,0 C 16,8 C 9,7 km/h (2 Bft)
05.06.2023 09:15 16,9 C 18,3 C 53 % 1021,0 hPa 0,0 l/m 9,6 km/h (2 Bft) O-NO 65 3 min 2,4 UV-I 470 W/m 7,3 C 15,4 C 16,1 km/h (3 Bft)
05.06.2023 09:18 16,9 C 18,9 C 53 % 1021,1 hPa 0,0 l/m 7,3 km/h (2 Bft) NO 47 3 min 2,4 UV-I 479 W/m 7,3 C 16,4 C 12,9 km/h (3 Bft)
05.06.2023 09:21 17,1 C 18,9 C 53 % 1021,0 hPa 0,0 l/m 9,7 km/h (2 Bft) NO 50 3 min 2,5 UV-I 487 W/m 7,4 C 15,6 C 16,1 km/h (3 Bft)
05.06.2023 09:24 17,1 C 18,9 C 52 % 1021,1 hPa 0,0 l/m 11,4 km/h (2 Bft) NO 48 3 min 2,5 UV-I 494 W/m 7,2 C 14,9 C 17,7 km/h (3 Bft)
05.06.2023 09:27 17,0 C 18,9 C 51 % 1021,0 hPa 0,0 l/m 10,9 km/h (2 Bft) N-NO 30 3 min 2,6 UV-I 502 W/m 6,8 C 15,0 C 17,7 km/h (3 Bft)
05.06.2023 09:30 17,2 C 18,9 C 52 % 1021,0 hPa 0,0 l/m 10,6 km/h (2 Bft) NO 47 3 min 2,7 UV-I 510 W/m 7,3 C 15,3 C 16,1 km/h (3 Bft)
05.06.2023 09:33 17,3 C 18,9 C 51 % 1021,0 hPa 0,0 l/m 10,6 km/h (2 Bft) O-NO 76 3 min 2,7 UV-I 515 W/m 7,1 C 15,4 C 17,7 km/h (3 Bft)
05.06.2023 09:36 17,1 C 18,3 C 50 % 1021,1 hPa 0,0 l/m 12,4 km/h (3 Bft) O-NO 63 3 min 2,8 UV-I 518 W/m 6,6 C 14,6 C 19,3 km/h (3 Bft)
05.06.2023 09:39 17,4 C 18,3 C 55 % 1021,0 hPa 0,0 l/m 8,7 km/h (2 Bft) NO 46 3 min 2,8 UV-I 519 W/m 8,3 C 16,3 C 16,1 km/h (3 Bft)
05.06.2023 09:42 17,5 C 18,3 C 51 % 1020,9 hPa 0,0 l/m 9,2 km/h (2 Bft) O-NO 78 3 min 2,9 UV-I 518 W/m 7,3 C 16,2 C 16,1 km/h (3 Bft)
05.06.2023 09:45 17,6 C 18,3 C 51 % 1020,9 hPa 0,0 l/m 9,0 km/h (2 Bft) NO 54 3 min 3,0 UV-I 514 W/m 7,3 C 16,4 C 14,5 km/h (3 Bft)
05.06.2023 09:48 17,8 C 18,3 C 50 % 1020,8 hPa 0,0 l/m 7,7 km/h (2 Bft) NO 46 3 min 3,0 UV-I 509 W/m 7,2 C 17,2 C 14,5 km/h (3 Bft)
05.06.2023 09:51 17,8 C 18,3 C 50 % 1020,9 hPa 0,0 l/m 10,5 km/h (2 Bft) O-NO 67 3 min 3,1 UV-I 503 W/m 7,2 C 16,0 C 17,7 km/h (3 Bft)
05.06.2023 09:54 18,1 C 18,3 C 51 % 1020,9 hPa 0,0 l/m 8,2 km/h (2 Bft) O 80 3 min 3,1 UV-I 495 W/m 7,8 C 17,3 C 12,9 km/h (3 Bft)
05.06.2023 09:57 18,0 C 18,3 C 50 % 1020,9 hPa 0,0 l/m 11,1 km/h (2 Bft) O-NO 71 3 min 3,2 UV-I 489 W/m 7,4 C 16,0 C 17,7 km/h (3 Bft)
05.06.2023 10:00 18,1 C 18,9 C 50 % 1020,8 hPa 0,0 l/m 8,3 km/h (2 Bft) O-NO 57 3 min 3,2 UV-I 484 W/m 7,5 C 17,2 C 14,5 km/h (3 Bft)
05.06.2023 10:03 18,3 C 19,4 C 50 % 1020,8 hPa 0,0 l/m 8,9 km/h (2 Bft) NO 36 3 min 3,3 UV-I 482 W/m 7,7 C 17,2 C 16,1 km/h (3 Bft)
05.06.2023 10:06 18,4 C 19,4 C 50 % 1020,8 hPa 0,0 l/m 10,6 km/h (2 Bft) O-NO 63 3 min 3,4 UV-I 480 W/m 7,8 C 16,7 C 17,7 km/h (3 Bft)
05.06.2023 10:09 18,4 C 18,9 C 50 % 1020,8 hPa 0,0 l/m 12,3 km/h (3 Bft) O-NO 74 3 min 3,4 UV-I 484 W/m 7,8 C 16,1 C 17,7 km/h (3 Bft)
05.06.2023 10:12 18,7 C 18,9 C 50 % 1020,7 hPa 0,0 l/m 10,0 km/h (2 Bft) N 5 3 min 3,5 UV-I 487 W/m 8,1 C 17,2 C 16,1 km/h (3 Bft)
05.06.2023 10:15 18,9 C 18,9 C 51 % 1020,7 hPa 0,0 l/m 11,3 km/h (2 Bft) N 355 3 min 3,5 UV-I 493 W/m 8,5 C 17,0 C 16,1 km/h (3 Bft)
05.06.2023 10:18 19,0 C 19,4 C 49 % 1020,8 hPa 0,0 l/m 6,3 km/h (2 Bft) N 355 3 min 3,6 UV-I 506 W/m 8,0 C 19,0 C 17,7 km/h (3 Bft)
05.06.2023 10:21 19,2 C 19,4 C 51 % 1020,8 hPa 0,0 l/m 10,1 km/h (2 Bft) N-NO 12 3 min 3,7 UV-I 522 W/m 8,8 C 17,7 C 19,3 km/h (3 Bft)
05.06.2023 10:24 19,1 C 19,4 C 49 % 1020,6 hPa 0,0 l/m 13,0 km/h (3 Bft) N-NO 13 3 min 3,7 UV-I 542 W/m 8,1 C 16,7 C 17,7 km/h (3 Bft)
05.06.2023 10:27 19,1 C 19,4 C 50 % 1020,8 hPa 0,0 l/m 12,0 km/h (2 Bft) N 11 3 min 3,8 UV-I 563 W/m 8,4 C 17,0 C 20,9 km/h (4 Bft)
05.06.2023 10:30 19,3 C 20,0 C 45 % 1020,8 hPa 0,0 l/m 11,2 km/h (2 Bft) N-NO 25 3 min 3,9 UV-I 584 W/m 7,1 C 17,5 C 19,3 km/h (3 Bft)
05.06.2023 10:33 19,3 C 20,6 C 48 % 1020,8 hPa 0,0 l/m 12,7 km/h (3 Bft) N 11 3 min 3,9 UV-I 611 W/m 8,0 C 17,0 C 19,3 km/h (3 Bft)
05.06.2023 10:36 19,2 C 21,1 C 47 % 1020,9 hPa 0,0 l/m 14,8 km/h (3 Bft) NO 44 3 min 4,0 UV-I 632 W/m 7,6 C 16,3 C 22,5 km/h (4 Bft)
05.06.2023 10:39 19,2 C 21,1 C 47 % 1020,8 hPa 0,0 l/m 10,7 km/h (2 Bft) N 10 3 min 4,0 UV-I 655 W/m 7,6 C 17,5 C 20,9 km/h (4 Bft)
05.06.2023 10:42 19,2 C 21,7 C 48 % 1020,9 hPa 0,0 l/m 14,9 km/h (3 Bft) N-NO 15 3 min 4,1 UV-I 673 W/m 7,9 C 16,3 C 20,9 km/h (4 Bft)
05.06.2023 10:45 19,4 C 22,2 C 45 % 1020,8 hPa 0,0 l/m 12,1 km/h (2 Bft) N-NO 26 3 min 4,1 UV-I 685 W/m 7,2 C 17,3 C 17,7 km/h (3 Bft)
05.06.2023 10:48 19,4 C 22,2 C 42 % 1020,9 hPa 0,0 l/m 15,1 km/h (3 Bft) N-NW 347 3 min 4,2 UV-I 693 W/m 6,2 C 16,5 C 19,3 km/h (3 Bft)
05.06.2023 10:51 19,6 C 22,2 C 44 % 1020,9 hPa 0,0 l/m 10,7 km/h (2 Bft) N 5 3 min 4,3 UV-I 700 W/m 7,0 C 18,0 C 17,7 km/h (3 Bft)
05.06.2023 10:54 19,5 C 22,2 C 40 % 1020,9 hPa 0,0 l/m 15,6 km/h (3 Bft) N-NO 32 3 min 4,3 UV-I 705 W/m 5,5 C 16,5 C 22,5 km/h (4 Bft)
05.06.2023 10:57 19,5 C 22,2 C 43 % 1020,8 hPa 0,0 l/m 15,1 km/h (3 Bft) N-NO 30 3 min 4,4 UV-I 712 W/m 6,6 C 16,6 C 22,5 km/h (4 Bft)
05.06.2023 11:00 19,3 C 22,2 C 43 % 1020,9 hPa 0,0 l/m 19,6 km/h (3 Bft) N-NO 15 3 min 4,4 UV-I 717 W/m 6,4 C 15,4 C 27,4 km/h (4 Bft)
05.06.2023 11:03 19,3 C 23,3 C 42 % 1020,8 hPa 0,0 l/m 13,1 km/h (3 Bft) O-NO 57 3 min 4,5 UV-I 724 W/m 6,1 C 16,9 C 19,3 km/h (3 Bft)
05.06.2023 11:06 19,5 C 23,9 C 44 % 1020,9 hPa 0,0 l/m 11,4 km/h (2 Bft) N-NO 19 3 min 4,5 UV-I 729 W/m 6,9 C 17,6 C 19,3 km/h (3 Bft)
05.06.2023 11:09 19,7 C 24,4 C 44 % 1020,8 hPa 0,0 l/m 14,1 km/h (3 Bft) N-NO 17 3 min 4,6 UV-I 736 W/m 7,1 C 17,1 C 19,3 km/h (3 Bft)
05.06.2023 11:12 19,8 C 24,4 C 39 % 1020,8 hPa 0,0 l/m 11,9 km/h (2 Bft) N-NO 27 3 min 4,7 UV-I 741 W/m 5,4 C 17,8 C 20,9 km/h (4 Bft)
05.06.2023 11:15 19,8 C 24,4 C 43 % 1020,8 hPa 0,0 l/m 14,8 km/h (3 Bft) N-NO 19 3 min 4,7 UV-I 746 W/m 6,9 C 17,1 C 22,5 km/h (4 Bft)
05.06.2023 11:18 19,7 C 24,4 C 40 % 1020,9 hPa 0,0 l/m 13,7 km/h (3 Bft) N-NO 22 3 min 4,8 UV-I 752 W/m 5,7 C 17,2 C 20,9 km/h (4 Bft)
05.06.2023 11:21 19,7 C 25,0 C 40 % 1020,8 hPa 0,0 l/m 14,5 km/h (3 Bft) N 5 3 min 4,8 UV-I 757 W/m 5,7 C 17,0 C 19,3 km/h (3 Bft)
05.06.2023 11:24 19,8 C 26,1 C 41 % 1020,8 hPa 0,0 l/m 13,7 km/h (3 Bft) NO 40 3 min 4,9 UV-I 761 W/m 6,2 C 17,3 C 20,9 km/h (4 Bft)
05.06.2023 11:27 19,9 C 26,1 C 39 % 1020,8 hPa 0,0 l/m 15,4 km/h (3 Bft) NO 46 3 min 4,9 UV-I 766 W/m 5,5 C 17,0 C 24,1 km/h (4 Bft)
05.06.2023 11:30 20,1 C 26,7 C 43 % 1020,8 hPa 0,0 l/m 8,4 km/h (2 Bft) N-NO 25 3 min 4,9 UV-I 769 W/m 7,1 C 19,3 C 16,1 km/h (3 Bft)
05.06.2023 11:33 20,2 C 27,2 C 41 % 1020,9 hPa 0,0 l/m 9,3 km/h (2 Bft) N 5 3 min 5,0 UV-I 774 W/m 6,5 C 19,1 C 16,1 km/h (3 Bft)
05.06.2023 11:36 20,5 C 27,2 C 43 % 1020,9 hPa 0,0 l/m 7,9 km/h (2 Bft) N-NO 32 3 min 5,1 UV-I 780 W/m 7,5 C 19,9 C 16,1 km/h (3 Bft)
05.06.2023 11:39 20,6 C 27,8 C 38 % 1020,9 hPa 0,0 l/m 13,8 km/h (3 Bft) N-NO 26 3 min 5,1 UV-I 785 W/m 5,8 C 18,3 C 20,9 km/h (4 Bft)
05.06.2023 11:42 20,3 C 26,1 C 37 % 1020,8 hPa 0,0 l/m 17,3 km/h (3 Bft) NO 49 3 min 5,2 UV-I 790 W/m 5,1 C 17,1 C 22,5 km/h (4 Bft)
05.06.2023 11:45 20,0 C 26,1 C 38 % 1020,8 hPa 0,0 l/m 9,6 km/h (2 Bft) N-NO 17 3 min 5,2 UV-I 793 W/m 5,2 C 18,8 C 16,1 km/h (3 Bft)
05.06.2023 11:48 20,2 C 26,7 C 40 % 1020,8 hPa 0,0 l/m 11,6 km/h (2 Bft) N 5 3 min 5,3 UV-I 797 W/m 6,2 C 18,4 C 16,1 km/h (3 Bft)
05.06.2023 11:51 20,3 C 26,1 C 39 % 1020,8 hPa 0,0 l/m 13,9 km/h (3 Bft) N-NO 16 3 min 5,3 UV-I 803 W/m 5,9 C 17,9 C 22,5 km/h (4 Bft)
05.06.2023 11:54 20,6 C 26,1 C 41 % 1020,8 hPa 0,0 l/m 14,2 km/h (3 Bft) NO 40 3 min 5,3 UV-I 805 W/m 6,9 C 18,2 C 20,9 km/h (4 Bft)
05.06.2023 11:57 20,3 C 26,7 C 38 % 1020,8 hPa 0,0 l/m 13,4 km/h (3 Bft) NO 51 3 min 5,4 UV-I 810 W/m 5,5 C 18,0 C 24,1 km/h (4 Bft)
05.06.2023 12:00 20,1 C 26,1 C 39 % 1020,7 hPa 0,0 l/m 10,5 km/h (2 Bft) N 11 3 min 5,4 UV-I 814 W/m 5,7 C 18,6 C 16,1 km/h (3 Bft)
05.06.2023 12:03 20,2 C 26,7 C 41 % 1020,8 hPa 0,0 l/m 9,0 km/h (2 Bft) O-NO 76 3 min 5,5 UV-I 818 W/m 6,5 C 19,2 C 14,5 km/h (3 Bft)
05.06.2023 12:06 20,3 C 26,7 C 40 % 1020,7 hPa 0,0 l/m 7,2 km/h (2 Bft) O-NO 69 3 min 5,5 UV-I 821 W/m 6,3 C 20,0 C 16,1 km/h (3 Bft)
05.06.2023 12:09 20,6 C 27,2 C 39 % 1020,8 hPa 0,0 l/m 12,8 km/h (3 Bft) N 350 3 min 5,6 UV-I 826 W/m 6,2 C 18,5 C 24,1 km/h (4 Bft)
05.06.2023 12:12 20,3 C 26,7 C 41 % 1020,8 hPa 0,0 l/m 17,6 km/h (3 Bft) N-NO 32 3 min 5,6 UV-I 829 W/m 6,6 C 17,1 C 24,1 km/h (4 Bft)
05.06.2023 12:15 20,6 C 28,3 C 41 % 1020,7 hPa 0,0 l/m 10,6 km/h (2 Bft) N 5 3 min 5,6 UV-I 834 W/m 6,9 C 19,1 C 20,9 km/h (4 Bft)
05.06.2023 12:18 20,7 C 28,9 C 42 % 1020,8 hPa 0,0 l/m 8,5 km/h (2 Bft) N-NW 338 3 min 5,7 UV-I 837 W/m 7,3 C 19,9 C 17,7 km/h (3 Bft)
05.06.2023 12:21 20,7 C 28,3 C 41 % 1020,7 hPa 0,0 l/m 13,4 km/h (3 Bft) N-NO 24 3 min 5,7 UV-I 839 W/m 7,0 C 18,5 C 19,3 km/h (3 Bft)
05.06.2023 12:24 20,4 C 27,8 C 38 % 1020,7 hPa 0,0 l/m 10,1 km/h (2 Bft) O 81 3 min 5,8 UV-I 843 W/m 5,6 C 19,1 C 19,3 km/h (3 Bft)
05.06.2023 12:27 20,6 C 27,8 C 42 % 1020,7 hPa 0,0 l/m 9,6 km/h (2 Bft) O 82 3 min 5,8 UV-I 846 W/m 7,2 C 19,4 C 17,7 km/h (3 Bft)
05.06.2023 12:30 20,5 C 27,2 C 38 % 1020,7 hPa 0,0 l/m 13,9 km/h (3 Bft) O 92 3 min 5,8 UV-I 850 W/m 5,7 C 18,1 C 22,5 km/h (4 Bft)
05.06.2023 12:33 20,2 C 27,2 C 39 % 1020,7 hPa 0,0 l/m 10,5 km/h (2 Bft) O 101 3 min 5,8 UV-I 853 W/m 5,8 C 18,7 C 17,7 km/h (3 Bft)
05.06.2023 12:36 20,2 C 27,2 C 39 % 1020,7 hPa 0,0 l/m 7,8 km/h (2 Bft) N 5 3 min 5,8 UV-I 854 W/m 5,8 C 19,6 C 14,5 km/h (3 Bft)
05.06.2023 12:39 20,6 C 27,8 C 41 % 1020,7 hPa 0,0 l/m 16,5 km/h (3 Bft) NO 34 3 min 5,9 UV-I 858 W/m 6,9 C 17,7 C 22,5 km/h (4 Bft)
05.06.2023 12:42 20,6 C 28,3 C 41 % 1020,7 hPa 0,0 l/m 16,8 km/h (3 Bft) NO 39 3 min 5,9 UV-I 862 W/m 6,9 C 17,6 C 24,1 km/h (4 Bft)
05.06.2023 12:45 20,3 C 27,8 C 41 % 1020,7 hPa 0,0 l/m 12,9 km/h (3 Bft) N-NO 23 3 min 5,9 UV-I 863 W/m 6,6 C 18,1 C 19,3 km/h (3 Bft)
05.06.2023 12:48 20,3 C 28,9 C 42 % 1020,7 hPa 0,0 l/m 10,8 km/h (2 Bft) NO 53 3 min 5,9 UV-I 861 W/m 7,0 C 18,7 C 22,5 km/h (4 Bft)
05.06.2023 12:51 20,7 C 28,9 C 40 % 1020,6 hPa 0,0 l/m 13,4 km/h (3 Bft) N-NO 33 3 min 6,0 UV-I 864 W/m 6,6 C 18,5 C 20,9 km/h (4 Bft)
05.06.2023 12:54 20,4 C 28,3 C 39 % 1020,5 hPa 0,0 l/m 9,6 km/h (2 Bft) N 360 3 min 6,0 UV-I 868 W/m 6,0 C 19,2 C 20,9 km/h (4 Bft)
05.06.2023 12:57 20,4 C 29,4 C 44 % 1020,6 hPa 0,0 l/m 9,6 km/h (2 Bft) N-NO 33 3 min 6,0 UV-I 867 W/m 7,7 C 19,2 C 19,3 km/h (3 Bft)
05.06.2023 13:00 20,7 C 30,0 C 46 % 1020,6 hPa 0,0 l/m 15,0 km/h (3 Bft) O 83 3 min 6,0 UV-I 870 W/m 8,7 C 18,1 C 22,5 km/h (4 Bft)
05.06.2023 13:03 20,7 C 28,9 C 41 % 1020,7 hPa 0,0 l/m 14,6 km/h (3 Bft) N-NO 25 3 min 6,0 UV-I 873 W/m 7,0 C 18,2 C 20,9 km/h (4 Bft)
05.06.2023 13:06 20,8 C 28,3 C 42 % 1020,6 hPa 0,0 l/m 12,4 km/h (3 Bft) NO 49 3 min 6,0 UV-I 874 W/m 7,4 C 18,8 C 20,9 km/h (4 Bft)
05.06.2023 13:09 20,8 C 29,4 C 43 % 1020,7 hPa 0,0 l/m 12,0 km/h (2 Bft) N-NW 348 3 min 6,1 UV-I 876 W/m 7,8 C 19,0 C 20,9 km/h (4 Bft)
05.06.2023 13:12 20,8 C 30,0 C 44 % 1020,6 hPa 0,0 l/m 12,3 km/h (3 Bft) NO 55 3 min 6,1 UV-I 877 W/m 8,1 C 18,9 C 20,9 km/h (4 Bft)
05.06.2023 13:15 21,1 C 31,1 C 46 % 1020,5 hPa 0,0 l/m 9,3 km/h (2 Bft) N-NW 344 3 min 6,1 UV-I 874 W/m 9,0 C 20,1 C 16,1 km/h (3 Bft)
05.06.2023 13:18 20,8 C 31,7 C 42 % 1020,6 hPa 0,0 l/m 9,8 km/h (2 Bft) N 355 3 min 6,1 UV-I 877 W/m 7,4 C 19,6 C 17,7 km/h (3 Bft)
05.06.2023 13:21 20,8 C 30,6 C 41 % 1020,6 hPa 0,0 l/m 11,0 km/h (2 Bft) N 351 3 min 6,1 UV-I 877 W/m 7,1 C 19,2 C 16,1 km/h (3 Bft)
05.06.2023 13:24 21,2 C 30,6 C 44 % 1020,6 hPa 0,0 l/m 11,5 km/h (2 Bft) O-SO 102 3 min 6,1 UV-I 878 W/m 8,5 C 19,5 C 16,1 km/h (3 Bft)
05.06.2023 13:27 21,3 C 30,0 C 43 % 1020,5 hPa 0,0 l/m 11,1 km/h (2 Bft) NO 49 3 min 6,1 UV-I 880 W/m 8,2 C 19,8 C 17,7 km/h (3 Bft)
05.06.2023 13:30 21,3 C 30,6 C 43 % 1020,6 hPa 0,0 l/m 9,5 km/h (2 Bft) N 9 3 min 6,1 UV-I 878 W/m 8,2 C 20,2 C 17,7 km/h (3 Bft)
05.06.2023 13:33 21,2 C 30,6 C 41 % 1020,5 hPa 0,0 l/m 9,4 km/h (2 Bft) N-NW 346 3 min 6,1 UV-I 877 W/m 7,4 C 20,1 C 16,1 km/h (3 Bft)
05.06.2023 13:36 21,2 C 29,4 C 41 % 1020,5 hPa 0,0 l/m 9,9 km/h (2 Bft) N-NO 22 3 min 6,1 UV-I 880 W/m 7,4 C 20,0 C 24,1 km/h (4 Bft)
05.06.2023 13:39 21,2 C 30,0 C 47 % 1020,5 hPa 0,0 l/m 14,5 km/h (3 Bft) N-NO 14 3 min 6,1 UV-I 877 W/m 9,4 C 18,8 C 19,3 km/h (3 Bft)
05.06.2023 13:42 20,9 C 28,9 C 43 % 1020,4 hPa 0,0 l/m 8,6 km/h (2 Bft) N-NW 342 3 min 6,0 UV-I 875 W/m 7,8 C 20,1 C 16,1 km/h (3 Bft)
05.06.2023 13:45 20,9 C 28,9 C 45 % 1020,5 hPa 0,0 l/m 15,7 km/h (3 Bft) N-NO 20 3 min 6,1 UV-I 877 W/m 8,5 C 18,2 C 32,2 km/h (5 Bft)
05.06.2023 13:48 21,0 C 28,9 C 45 % 1020,4 hPa 0,0 l/m 14,5 km/h (3 Bft) NO 37 3 min 6,0 UV-I 875 W/m 8,6 C 18,6 C 20,9 km/h (4 Bft)
05.06.2023 13:51 21,2 C 29,4 C 44 % 1020,4 hPa 0,0 l/m 13,2 km/h (3 Bft) N-NW 333 3 min 6,0 UV-I 874 W/m 8,5 C 19,1 C 20,9 km/h (4 Bft)
05.06.2023 13:54 21,1 C 30,0 C 45 % 1020,4 hPa 0,0 l/m 6,7 km/h (2 Bft) N 5 3 min 6,0 UV-I 871 W/m 8,7 C 21,0 C 14,5 km/h (3 Bft)
05.06.2023 13:57 21,1 C 30,0 C 44 % 1020,3 hPa 0,0 l/m 11,3 km/h (2 Bft) N-NO 12 3 min 5,9 UV-I 867 W/m 8,4 C 19,5 C 24,1 km/h (4 Bft)
05.06.2023 14:00 20,9 C 30,0 C 41 % 1020,3 hPa 0,0 l/m 8,8 km/h (2 Bft) O-NO 74 3 min 6,0 UV-I 869 W/m 7,2 C 20,0 C 17,7 km/h (3 Bft)
05.06.2023 14:03 21,2 C 30,0 C 44 % 1020,3 hPa 0,0 l/m 8,0 km/h (2 Bft) O-NO 72 3 min 6,0 UV-I 865 W/m 8,5 C 20,6 C 17,7 km/h (3 Bft)
05.06.2023 14:06 21,2 C 28,9 C 42 % 1020,4 hPa 0,0 l/m 17,7 km/h (3 Bft) NO 38 3 min 5,9 UV-I 866 W/m 7,8 C 18,2 C 27,4 km/h (4 Bft)
05.06.2023 14:09 21,2 C 28,3 C 44 % 1020,3 hPa 0,0 l/m 10,0 km/h (2 Bft) NO 42 3 min 5,9 UV-I 866 W/m 8,5 C 20,0 C 16,1 km/h (3 Bft)
05.06.2023 14:12 21,1 C 29,4 C 44 % 1020,3 hPa 0,0 l/m 4,6 km/h (1 Bft) NO 46 3 min 5,9 UV-I 866 W/m 8,4 C 21,1 C 8,0 km/h (2 Bft)
05.06.2023 14:15 21,3 C 29,4 C 43 % 1020,3 hPa 0,0 l/m 14,6 km/h (3 Bft) O-NO 66 3 min 5,9 UV-I 867 W/m 8,2 C 18,9 C 25,7 km/h (4 Bft)
05.06.2023 14:18 21,3 C 29,4 C 44 % 1020,4 hPa 0,0 l/m 13,1 km/h (3 Bft) N-NO 25 3 min 5,9 UV-I 866 W/m 8,5 C 19,3 C 22,5 km/h (4 Bft)
05.06.2023 14:21 21,0 C 30,6 C 43 % 1020,3 hPa 0,0 l/m 3,4 km/h (1 Bft) NO 39 3 min 5,9 UV-I 863 W/m 7,9 C 21,0 C 8,0 km/h (2 Bft)
05.06.2023 14:24 21,5 C 30,6 C 43 % 1020,3 hPa 0,0 l/m 8,1 km/h (2 Bft) N-NO 22 3 min 5,9 UV-I 860 W/m 8,4 C 20,9 C 16,1 km/h (3 Bft)
05.06.2023 14:27 21,6 C 30,6 C 45 % 1020,3 hPa 0,0 l/m 9,7 km/h (2 Bft) N-NO 31 3 min 5,9 UV-I 859 W/m 9,2 C 20,5 C 17,7 km/h (3 Bft)
05.06.2023 14:30 21,7 C 31,1 C 42 % 1020,3 hPa 0,0 l/m 9,3 km/h (2 Bft) O-NO 69 3 min 5,8 UV-I 858 W/m 8,2 C 20,7 C 16,1 km/h (3 Bft)
05.06.2023 14:33 21,7 C 30,0 C 42 % 1020,3 hPa 0,0 l/m 15,6 km/h (3 Bft) N-NO 24 3 min 5,8 UV-I 858 W/m 8,2 C 19,2 C 24,1 km/h (4 Bft)
05.06.2023 14:36 21,6 C 30,6 C 47 % 1020,3 hPa 0,0 l/m 15,0 km/h (3 Bft) N-NO 26 3 min 5,8 UV-I 854 W/m 9,8 C 19,2 C 22,5 km/h (4 Bft)
05.06.2023 14:39 21,5 C 30,6 C 42 % 1020,3 hPa 0,0 l/m 8,2 km/h (2 Bft) N 355 3 min 5,7 UV-I 852 W/m 8,0 C 20,9 C 14,5 km/h (3 Bft)
05.06.2023 14:42 21,2 C 30,6 C 47 % 1020,2 hPa 0,0 l/m 3,8 km/h (1 Bft) NO 40 3 min 5,7 UV-I 844 W/m 9,4 C 21,2 C 8,0 km/h (2 Bft)
05.06.2023 14:45 21,3 C 31,7 C 46 % 1020,1 hPa 0,0 l/m 4,8 km/h (1 Bft) N-NW 333 3 min 5,7 UV-I 846 W/m 9,2 C 21,3 C 9,7 km/h (2 Bft)
05.06.2023 14:48 21,6 C 31,7 C 46 % 1020,1 hPa 0,0 l/m 7,6 km/h (2 Bft) N-NW 344 3 min 5,7 UV-I 846 W/m 9,5 C 21,2 C 16,1 km/h (3 Bft)
05.06.2023 14:51 22,0 C 31,1 C 46 % 1020,1 hPa 0,0 l/m 13,7 km/h (3 Bft) O-NO 71 3 min 5,6 UV-I 838 W/m 9,8 C 19,9 C 24,1 km/h (4 Bft)
05.06.2023 14:54 22,1 C 31,1 C 45 % 1020,1 hPa 0,0 l/m 10,0 km/h (2 Bft) O-NO 62 3 min 5,6 UV-I 837 W/m 9,6 C 21,0 C 19,3 km/h (3 Bft)
05.06.2023 14:57 21,9 C 30,6 C 44 % 1020,3 hPa 0,0 l/m 13,4 km/h (3 Bft) N-NO 24 3 min 5,6 UV-I 834 W/m 9,1 C 19,9 C 22,5 km/h (4 Bft)
05.06.2023 15:00 21,6 C 30,6 C 39 % 1020,1 hPa 0,0 l/m 4,2 km/h (1 Bft) O-NO 78 3 min 5,5 UV-I 831 W/m 7,0 C 21,6 C 8,0 km/h (2 Bft)
05.06.2023 15:03 21,4 C 30,0 C 45 % 1020,0 hPa 0,0 l/m 13,8 km/h (3 Bft) W-NW 303 3 min 5,5 UV-I 824 W/m 9,0 C 19,2 C 22,5 km/h (4 Bft)
05.06.2023 15:06 21,5 C 30,0 C 44 % 1019,9 hPa 0,0 l/m 7,6 km/h (2 Bft) N 355 3 min 5,4 UV-I 819 W/m 8,7 C 21,1 C 19,3 km/h (3 Bft)
05.06.2023 15:09 21,7 C 30,6 C 47 % 1020,0 hPa 0,0 l/m 8,3 km/h (2 Bft) N 351 3 min 5,4 UV-I 814 W/m 9,9 C 21,0 C 12,9 km/h (3 Bft)
05.06.2023 15:12 21,9 C 30,6 C 45 % 1019,9 hPa 0,0 l/m 12,9 km/h (3 Bft) N-NO 28 3 min 5,3 UV-I 811 W/m 9,4 C 20,0 C 24,1 km/h (4 Bft)
05.06.2023 15:15 21,7 C 28,9 C 39 % 1019,9 hPa 0,0 l/m 15,5 km/h (3 Bft) O-NO 68 3 min 5,3 UV-I 811 W/m 7,1 C 19,2 C 22,5 km/h (4 Bft)
05.06.2023 15:18 21,6 C 29,4 C 42 % 1019,9 hPa 0,0 l/m 9,7 km/h (2 Bft) NO 52 3 min 5,3 UV-I 810 W/m 8,1 C 20,5 C 19,3 km/h (3 Bft)
05.06.2023 15:21 21,9 C 29,4 C 42 % 1020,0 hPa 0,0 l/m 12,5 km/h (3 Bft) NO 55 3 min 5,2 UV-I 801 W/m 8,4 C 20,1 C 19,3 km/h (3 Bft)
05.06.2023 15:24 22,1 C 30,6 C 42 % 1019,9 hPa 0,0 l/m 12,0 km/h (2 Bft) NO 51 3 min 5,2 UV-I 802 W/m 8,6 C 20,4 C 19,3 km/h (3 Bft)
05.06.2023 15:27 22,0 C 28,9 C 41 % 1019,9 hPa 0,0 l/m 18,4 km/h (3 Bft) NO 34 3 min 5,1 UV-I 796 W/m 8,1 C 19,0 C 25,7 km/h (4 Bft)
05.06.2023 15:30 21,8 C 28,3 C 41 % 1019,9 hPa 0,0 l/m 11,9 km/h (2 Bft) N-NO 15 3 min 5,0 UV-I 793 W/m 8,0 C 20,1 C 17,7 km/h (3 Bft)
05.06.2023 15:33 21,9 C 29,4 C 45 % 1019,9 hPa 0,0 l/m 8,1 km/h (2 Bft) NO 35 3 min 5,0 UV-I 790 W/m 9,4 C 21,3 C 14,5 km/h (3 Bft)
05.06.2023 15:36 21,8 C 30,6 C 39 % 1019,8 hPa 0,0 l/m 6,0 km/h (2 Bft) NO 55 3 min 5,0 UV-I 786 W/m 7,2 C 21,8 C 9,7 km/h (2 Bft)
05.06.2023 15:39 21,8 C 31,1 C 42 % 1019,8 hPa 0,0 l/m 7,2 km/h (2 Bft) N-NO 20 3 min 5,0 UV-I 781 W/m 8,3 C 21,5 C 17,7 km/h (3 Bft)
05.06.2023 15:42 21,8 C 31,7 C 44 % 1019,8 hPa 0,0 l/m 11,0 km/h (2 Bft) N-NO 17 3 min 4,9 UV-I 776 W/m 9,0 C 20,4 C 19,3 km/h (3 Bft)
05.06.2023 15:45 21,7 C 31,1 C 43 % 1019,9 hPa 0,0 l/m 11,2 km/h (2 Bft) N 11 3 min 4,9 UV-I 774 W/m 8,6 C 20,2 C 19,3 km/h (3 Bft)
05.06.2023 15:48 21,6 C 31,1 C 39 % 1019,8 hPa 0,0 l/m 6,7 km/h (2 Bft) O-NO 62 3 min 4,8 UV-I 770 W/m 7,0 C 21,5 C 12,9 km/h (3 Bft)
05.06.2023 15:51 21,8 C 30,6 C 41 % 1019,7 hPa 0,0 l/m 8,5 km/h (2 Bft) O-NO 76 3 min 4,8 UV-I 763 W/m 8,0 C 21,1 C 24,1 km/h (4 Bft)
05.06.2023 15:54 21,8 C 28,9 C 40 % 1019,7 hPa 0,0 l/m 17,1 km/h (3 Bft) NO 54 3 min 4,7 UV-I 759 W/m 7,6 C 19,0 C 29,0 km/h (5 Bft)
05.06.2023 15:57 21,8 C 29,4 C 40 % 1019,7 hPa 0,0 l/m 10,3 km/h (2 Bft) N-NO 24 3 min 4,7 UV-I 753 W/m 7,6 C 20,5 C 16,1 km/h (3 Bft)
05.06.2023 16:00 21,8 C 30,6 C 39 % 1019,8 hPa 0,0 l/m 4,2 km/h (1 Bft) NO 35 3 min 4,6 UV-I 747 W/m 7,2 C 21,8 C 11,3 km/h (2 Bft)
05.06.2023 16:03 22,1 C 30,6 C 40 % 1019,8 hPa 0,0 l/m 13,8 km/h (3 Bft) NO 38 3 min 4,6 UV-I 745 W/m 7,9 C 20,0 C 22,5 km/h (4 Bft)
05.06.2023 16:06 21,9 C 30,6 C 41 % 1019,8 hPa 0,0 l/m 9,5 km/h (2 Bft) NO 55 3 min 4,5 UV-I 737 W/m 8,0 C 20,9 C 19,3 km/h (3 Bft)
05.06.2023 16:09 21,9 C 30,0 C 39 % 1019,7 hPa 0,0 l/m 12,6 km/h (3 Bft) N-NO 18 3 min 4,4 UV-I 728 W/m 7,3 C 20,1 C 20,9 km/h (4 Bft)
05.06.2023 16:12 21,8 C 30,0 C 39 % 1019,8 hPa 0,0 l/m 12,6 km/h (3 Bft) O-NO 59 3 min 4,4 UV-I 733 W/m 7,2 C 20,0 C 22,5 km/h (4 Bft)
05.06.2023 16:15 21,9 C 30,0 C 41 % 1019,6 hPa 0,0 l/m 8,6 km/h (2 Bft) NO 40 3 min 4,4 UV-I 728 W/m 8,0 C 21,2 C 14,5 km/h (3 Bft)
05.06.2023 16:18 22,2 C 30,0 C 43 % 1019,7 hPa 0,0 l/m 9,7 km/h (2 Bft) O-NO 61 3 min 4,3 UV-I 724 W/m 9,0 C 21,2 C 16,1 km/h (3 Bft)
05.06.2023 16:21 22,2 C 30,6 C 37 % 1019,6 hPa 0,0 l/m 10,1 km/h (2 Bft) O-NO 76 3 min 4,3 UV-I 717 W/m 6,8 C 21,0 C 16,1 km/h (3 Bft)
05.06.2023 16:24 22,3 C 30,0 C 42 % 1019,6 hPa 0,0 l/m 15,3 km/h (3 Bft) NO 35 3 min 4,2 UV-I 710 W/m 8,8 C 20,0 C 25,7 km/h (4 Bft)
05.06.2023 16:27 22,2 C 28,9 C 42 % 1019,6 hPa 0,0 l/m 16,0 km/h (3 Bft) N-NO 30 3 min 4,1 UV-I 701 W/m 8,7 C 19,7 C 25,7 km/h (4 Bft)
05.06.2023 16:30 22,2 C 28,9 C 39 % 1019,7 hPa 0,0 l/m 14,9 km/h (3 Bft) O-NO 74 3 min 4,0 UV-I 693 W/m 7,6 C 19,9 C 24,1 km/h (4 Bft)
05.06.2023 16:33 21,9 C 28,9 C 39 % 1019,6 hPa 0,0 l/m 9,9 km/h (2 Bft) O-NO 74 3 min 3,9 UV-I 680 W/m 7,3 C 20,8 C 16,1 km/h (3 Bft)
05.06.2023 16:36 21,9 C 30,0 C 41 % 1019,6 hPa 0,0 l/m 6,1 km/h (2 Bft) N 5 3 min 3,9 UV-I 681 W/m 8,0 C 21,9 C 9,7 km/h (2 Bft)
05.06.2023 16:39 22,1 C 31,1 C 43 % 1019,6 hPa 0,0 l/m 10,2 km/h (2 Bft) O 83 3 min 3,9 UV-I 679 W/m 8,9 C 20,9 C 22,5 km/h (4 Bft)
05.06.2023 16:42 22,3 C 30,6 C 38 % 1019,6 hPa 0,0 l/m 10,4 km/h (2 Bft) N-NO 31 3 min 3,8 UV-I 670 W/m 7,3 C 21,1 C 17,7 km/h (3 Bft)
05.06.2023 16:45 22,2 C 30,6 C 41 % 1019,6 hPa 0,0 l/m 7,7 km/h (2 Bft) N-NO 31 3 min 3,7 UV-I 660 W/m 8,3 C 21,8 C 16,1 km/h (3 Bft)
05.06.2023 16:48 22,1 C 28,9 C 39 % 1019,6 hPa 0,0 l/m 13,5 km/h (3 Bft) N-NO 28 3 min 3,7 UV-I 660 W/m 7,5 C 20,1 C 24,1 km/h (4 Bft)
05.06.2023 16:51 22,1 C 30,0 C 42 % 1019,5 hPa 0,0 l/m 8,8 km/h (2 Bft) N-NO 15 3 min 3,7 UV-I 653 W/m 8,6 C 21,3 C 20,9 km/h (4 Bft)
05.06.2023 16:54 22,2 C 31,1 C 40 % 1019,6 hPa 0,0 l/m 8,4 km/h (2 Bft) N-NO 13 3 min 3,7 UV-I 650 W/m 8,0 C 21,5 C 24,1 km/h (4 Bft)
05.06.2023 16:57 22,2 C 31,1 C 40 % 1019,7 hPa 0,0 l/m 13,1 km/h (3 Bft) N-NO 17 3 min 3,6 UV-I 646 W/m 8,0 C 20,3 C 19,3 km/h (3 Bft)
05.06.2023 17:00 22,1 C 31,1 C 41 % 1019,7 hPa 0,0 l/m 9,6 km/h (2 Bft) N 5 3 min 3,5 UV-I 637 W/m 8,2 C 21,1 C 19,3 km/h (3 Bft)
05.06.2023 17:03 22,2 C 32,2 C 42 % 1019,6 hPa 0,0 l/m 11,0 km/h (2 Bft) N-NW 336 3 min 3,5 UV-I 630 W/m 8,7 C 20,8 C 17,7 km/h (3 Bft)
05.06.2023 17:06 22,1 C 31,1 C 40 % 1019,6 hPa 0,0 l/m 13,7 km/h (3 Bft) N-NW 339 3 min 3,4 UV-I 624 W/m 7,9 C 20,1 C 22,5 km/h (4 Bft)
05.06.2023 17:09 22,2 C 31,7 C 42 % 1019,6 hPa 0,0 l/m 10,6 km/h (2 Bft) N 5 3 min 3,4 UV-I 615 W/m 8,7 C 20,9 C 14,5 km/h (3 Bft)
05.06.2023 17:12 22,3 C 31,7 C 42 % 1019,5 hPa 0,0 l/m 3,8 km/h (1 Bft) NO 55 3 min 3,3 UV-I 609 W/m 8,8 C 22,3 C 8,0 km/h (2 Bft)
05.06.2023 17:15 22,1 C 31,1 C 40 % 1019,5 hPa 0,0 l/m 8,5 km/h (2 Bft) NO 50 3 min 3,3 UV-I 605 W/m 7,9 C 21,4 C 16,1 km/h (3 Bft)
05.06.2023 17:18 22,1 C 30,6 C 40 % 1019,5 hPa 0,0 l/m 7,7 km/h (2 Bft) NO 50 3 min 3,2 UV-I 596 W/m 7,9 C 21,7 C 14,5 km/h (3 Bft)
05.06.2023 17:21 22,3 C 30,0 C 40 % 1019,5 hPa 0,0 l/m 5,5 km/h (1 Bft) O-NO 63 3 min 3,1 UV-I 587 W/m 8,0 C 22,3 C 8,0 km/h (2 Bft)
05.06.2023 17:24 22,2 C 30,6 C 43 % 1019,5 hPa 0,0 l/m 3,6 km/h (1 Bft) N-NW 337 3 min 3,1 UV-I 581 W/m 9,0 C 22,2 C 8,0 km/h (2 Bft)
05.06.2023 17:27 22,2 C 30,0 C 42 % 1019,3 hPa 0,0 l/m 11,2 km/h (2 Bft) O 85 3 min 3,0 UV-I 576 W/m 8,7 C 20,8 C 19,3 km/h (3 Bft)
05.06.2023 17:30 22,1 C 27,8 C 39 % 1019,4 hPa 0,0 l/m 17,6 km/h (3 Bft) N-NO 32 3 min 3,0 UV-I 568 W/m 7,5 C 19,3 C 24,1 km/h (4 Bft)
05.06.2023 17:33 21,9 C 27,2 C 41 % 1019,4 hPa 0,0 l/m 9,8 km/h (2 Bft) NO 40 3 min 2,9 UV-I 557 W/m 8,0 C 20,8 C 17,7 km/h (3 Bft)
05.06.2023 17:36 22,1 C 26,7 C 39 % 1019,5 hPa 0,0 l/m 15,5 km/h (3 Bft) NO 44 3 min 2,8 UV-I 548 W/m 7,5 C 19,7 C 22,5 km/h (4 Bft)
05.06.2023 17:39 22,1 C 26,1 C 39 % 1019,4 hPa 0,0 l/m 14,0 km/h (3 Bft) N-NO 22 3 min 2,8 UV-I 542 W/m 7,5 C 20,0 C 22,5 km/h (4 Bft)
05.06.2023 17:42 21,9 C 26,7 C 38 % 1019,4 hPa 0,0 l/m 12,2 km/h (2 Bft) N-NO 17 3 min 2,7 UV-I 532 W/m 6,9 C 20,2 C 20,9 km/h (4 Bft)
05.06.2023 17:45 21,8 C 26,7 C 40 % 1019,4 hPa 0,0 l/m 6,7 km/h (2 Bft) O-SO 103 3 min 2,6 UV-I 521 W/m 7,6 C 21,7 C 12,9 km/h (3 Bft)
05.06.2023 17:48 21,8 C 27,2 C 40 % 1019,4 hPa 0,0 l/m 10,0 km/h (2 Bft) N-NO 15 3 min 2,5 UV-I 512 W/m 7,6 C 20,6 C 22,5 km/h (4 Bft)
05.06.2023 17:51 21,7 C 27,8 C 40 % 1019,4 hPa 0,0 l/m 11,0 km/h (2 Bft) N-NO 15 3 min 2,5 UV-I 511 W/m 7,5 C 20,2 C 17,7 km/h (3 Bft)
05.06.2023 17:54 21,9 C 27,8 C 41 % 1019,3 hPa 0,0 l/m 13,0 km/h (3 Bft) N-NO 21 3 min 2,5 UV-I 504 W/m 8,0 C 20,0 C 22,5 km/h (4 Bft)
05.06.2023 17:57 21,9 C 27,2 C 40 % 1019,3 hPa 0,0 l/m 12,5 km/h (3 Bft) N 11 3 min 2,4 UV-I 496 W/m 7,7 C 20,1 C 17,7 km/h (3 Bft)
05.06.2023 18:00 21,9 C 27,2 C 41 % 1019,3 hPa 0,0 l/m 12,4 km/h (3 Bft) N 350 3 min 2,4 UV-I 488 W/m 8,0 C 20,1 C 20,9 km/h (4 Bft)
05.06.2023 18:03 21,8 C 27,8 C 42 % 1019,3 hPa 0,0 l/m 14,2 km/h (3 Bft) NO 34 3 min 2,3 UV-I 480 W/m 8,3 C 19,6 C 19,3 km/h (3 Bft)
05.06.2023 18:06 21,8 C 27,8 C 41 % 1019,3 hPa 0,0 l/m 13,2 km/h (3 Bft) N-NO 28 3 min 2,3 UV-I 473 W/m 8,0 C 19,8 C 24,1 km/h (4 Bft)
05.06.2023 18:09 21,6 C 27,2 C 40 % 1019,4 hPa 0,0 l/m 11,6 km/h (2 Bft) N 349 3 min 2,2 UV-I 464 W/m 7,4 C 20,0 C 19,3 km/h (3 Bft)
05.06.2023 18:12 21,6 C 27,8 C 41 % 1019,2 hPa 0,0 l/m 10,5 km/h (2 Bft) N 360 3 min 2,2 UV-I 457 W/m 7,8 C 20,3 C 16,1 km/h (3 Bft)
05.06.2023 18:15 21,6 C 27,8 C 44 % 1019,2 hPa 0,0 l/m 9,1 km/h (2 Bft) N 355 3 min 2,1 UV-I 444 W/m 8,8 C 20,7 C 16,1 km/h (3 Bft)
05.06.2023 18:18 21,6 C 27,8 C 43 % 1019,2 hPa 0,0 l/m 7,6 km/h (2 Bft) N-NO 15 3 min 2,1 UV-I 441 W/m 8,5 C 21,2 C 12,9 km/h (3 Bft)
05.06.2023 18:21 21,4 C 26,7 C 39 % 1019,2 hPa 0,0 l/m 13,3 km/h (3 Bft) N-NO 22 3 min 2,0 UV-I 433 W/m 6,9 C 19,3 C 19,3 km/h (3 Bft)
05.06.2023 18:24 21,4 C 26,1 C 43 % 1019,2 hPa 0,0 l/m 12,4 km/h (3 Bft) N-NO 19 3 min 1,9 UV-I 423 W/m 8,3 C 19,5 C 24,1 km/h (4 Bft)
05.06.2023 18:27 21,6 C 25,0 C 42 % 1019,2 hPa 0,0 l/m 10,0 km/h (2 Bft) N 355 3 min 1,9 UV-I 415 W/m 8,1 C 20,4 C 17,7 km/h (3 Bft)
05.06.2023 18:30 21,6 C 23,9 C 40 % 1019,2 hPa 0,0 l/m 13,2 km/h (3 Bft) N-NO 27 3 min 1,8 UV-I 409 W/m 7,4 C 19,6 C 20,9 km/h (4 Bft)
05.06.2023 18:33 21,5 C 22,8 C 41 % 1019,2 hPa 0,0 l/m 12,4 km/h (3 Bft) N-NO 21 3 min 1,8 UV-I 400 W/m 7,7 C 19,7 C 20,9 km/h (4 Bft)
05.06.2023 18:36 21,4 C 22,2 C 41 % 1019,1 hPa 0,0 l/m 14,3 km/h (3 Bft) N 5 3 min 1,7 UV-I 391 W/m 7,6 C 19,1 C 20,9 km/h (4 Bft)
05.06.2023 18:39 21,3 C 22,2 C 41 % 1019,1 hPa 0,0 l/m 10,4 km/h (2 Bft) O-NO 57 3 min 1,7 UV-I 384 W/m 7,5 C 20,0 C 17,7 km/h (3 Bft)
05.06.2023 18:42 21,4 C 21,7 C 41 % 1019,1 hPa 0,0 l/m 11,0 km/h (2 Bft) N-NO 19 3 min 1,6 UV-I 375 W/m 7,6 C 19,9 C 17,7 km/h (3 Bft)
05.06.2023 18:45 21,3 C 21,7 C 41 % 1019,2 hPa 0,0 l/m 10,0 km/h (2 Bft) N-NO 25 3 min 1,5 UV-I 364 W/m 7,5 C 20,1 C 17,7 km/h (3 Bft)
05.06.2023 18:48 21,2 C 21,7 C 41 % 1019,0 hPa 0,0 l/m 13,4 km/h (3 Bft) N 5 3 min 1,5 UV-I 357 W/m 7,4 C 19,1 C 20,9 km/h (4 Bft)
05.06.2023 18:51 21,0 C 21,1 C 42 % 1019,1 hPa 0,0 l/m 12,1 km/h (2 Bft) N-NO 19 3 min 1,5 UV-I 350 W/m 7,6 C 19,2 C 19,3 km/h (3 Bft)
05.06.2023 18:54 20,9 C 21,7 C 45 % 1019,1 hPa 0,0 l/m 9,9 km/h (2 Bft) N-NW 344 3 min 1,4 UV-I 342 W/m 8,5 C 19,7 C 16,1 km/h (3 Bft)
05.06.2023 18:57 21,1 C 21,7 C 44 % 1019,1 hPa 0,0 l/m 8,2 km/h (2 Bft) N-NO 20 3 min 1,4 UV-I 335 W/m 8,4 C 20,4 C 14,5 km/h (3 Bft)
05.06.2023 19:00 21,1 C 21,7 C 44 % 1019,1 hPa 0,0 l/m 9,7 km/h (2 Bft) N-NW 336 3 min 1,3 UV-I 326 W/m 8,4 C 19,9 C 16,1 km/h (3 Bft)
05.06.2023 19:03 20,9 C 21,1 C 44 % 1019,2 hPa 0,0 l/m 9,3 km/h (2 Bft) N-NW 334 3 min 1,3 UV-I 318 W/m 8,2 C 19,9 C 16,1 km/h (3 Bft)
05.06.2023 19:06 20,7 C 21,7 C 44 % 1019,1 hPa 0,0 l/m 12,9 km/h (3 Bft) N 355 3 min 1,3 UV-I 309 W/m 8,0 C 18,6 C 20,9 km/h (4 Bft)
05.06.2023 19:09 20,6 C 22,2 C 44 % 1019,1 hPa 0,0 l/m 18,5 km/h (3 Bft) N-NW 345 3 min 1,2 UV-I 301 W/m 7,9 C 17,3 C 27,4 km/h (4 Bft)
05.06.2023 19:12 20,5 C 22,2 C 45 % 1019,1 hPa 0,0 l/m 13,7 km/h (3 Bft) N 11 3 min 1,1 UV-I 292 W/m 8,2 C 18,2 C 20,9 km/h (4 Bft)
05.06.2023 19:15 20,4 C 22,2 C 45 % 1019,2 hPa 0,0 l/m 13,3 km/h (3 Bft) N 11 3 min 1,1 UV-I 283 W/m 8,1 C 18,1 C 19,3 km/h (3 Bft)
05.06.2023 19:18 20,3 C 21,1 C 45 % 1019,2 hPa 0,0 l/m 16,3 km/h (3 Bft) N 5 3 min 1,1 UV-I 276 W/m 8,0 C 17,3 C 22,5 km/h (4 Bft)
05.06.2023 19:21 20,3 C 21,1 C 46 % 1019,2 hPa 0,0 l/m 12,7 km/h (3 Bft) N-NW 347 3 min 1,0 UV-I 268 W/m 8,3 C 18,2 C 20,9 km/h (4 Bft)
05.06.2023 19:24 20,2 C 21,1 C 46 % 1019,2 hPa 0,0 l/m 8,1 km/h (2 Bft) N 5 3 min 1,0 UV-I 262 W/m 8,2 C 19,5 C 14,5 km/h (3 Bft)
05.06.2023 19:27 20,2 C 20,6 C 47 % 1019,2 hPa 0,0 l/m 10,7 km/h (2 Bft) N-NW 337 3 min 0,9 UV-I 254 W/m 8,5 C 18,6 C 20,9 km/h (4 Bft)
05.06.2023 19:30 20,2 C 20,6 C 46 % 1019,2 hPa 0,0 l/m 13,9 km/h (3 Bft) N 355 3 min 0,9 UV-I 245 W/m 8,2 C 17,8 C 20,9 km/h (4 Bft)
05.06.2023 19:33 20,1 C 20,0 C 48 % 1019,2 hPa 0,0 l/m 7,8 km/h (2 Bft) N-NO 18 3 min 0,9 UV-I 237 W/m 8,7 C 19,5 C 14,5 km/h (3 Bft)
05.06.2023 19:36 19,9 C 20,0 C 48 % 1019,2 hPa 0,0 l/m 9,5 km/h (2 Bft) N-NW 337 3 min 0,8 UV-I 231 W/m 8,6 C 18,7 C 14,5 km/h (3 Bft)
05.06.2023 19:39 19,9 C 20,0 C 46 % 1019,2 hPa 0,0 l/m 13,1 km/h (3 Bft) N-NO 13 3 min 0,8 UV-I 224 W/m 7,9 C 17,6 C 22,5 km/h (4 Bft)
05.06.2023 19:42 19,9 C 19,4 C 47 % 1019,3 hPa 0,0 l/m 12,9 km/h (3 Bft) N 11 3 min 0,8 UV-I 216 W/m 8,3 C 17,7 C 17,7 km/h (3 Bft)
05.06.2023 19:45 19,8 C 19,4 C 47 % 1019,2 hPa 0,0 l/m 12,6 km/h (3 Bft) N 355 3 min 0,7 UV-I 210 W/m 8,2 C 17,6 C 20,9 km/h (4 Bft)
05.06.2023 19:48 19,7 C 18,9 C 48 % 1019,2 hPa 0,0 l/m 12,1 km/h (2 Bft) N 10 3 min 0,7 UV-I 202 W/m 8,4 C 17,7 C 19,3 km/h (3 Bft)
05.06.2023 19:51 19,7 C 18,9 C 48 % 1019,2 hPa 0,0 l/m 13,7 km/h (3 Bft) N-NO 22 3 min 0,7 UV-I 192 W/m 8,4 C 17,2 C 22,5 km/h (4 Bft)
05.06.2023 19:54 19,6 C 18,9 C 49 % 1019,3 hPa 0,0 l/m 11,3 km/h (2 Bft) N 350 3 min 0,6 UV-I 183 W/m 8,6 C 17,8 C 19,3 km/h (3 Bft)
05.06.2023 19:57 19,5 C 18,3 C 49 % 1019,3 hPa 0,0 l/m 10,8 km/h (2 Bft) N 10 3 min 0,6 UV-I 174 W/m 8,5 C 17,8 C 17,7 km/h (3 Bft)
05.06.2023 20:00 19,4 C 18,3 C 49 % 1019,2 hPa 0,0 l/m 10,4 km/h (2 Bft) N-NO 20 3 min 0,6 UV-I 165 W/m 8,4 C 17,8 C 16,1 km/h (3 Bft)
05.06.2023 20:03 19,3 C 18,3 C 50 % 1019,4 hPa 0,0 l/m 10,5 km/h (2 Bft) N 5 3 min 0,5 UV-I 156 W/m 8,6 C 17,7 C 20,9 km/h (4 Bft)
05.06.2023 20:06 19,2 C 17,8 C 51 % 1019,3 hPa 0,0 l/m 9,5 km/h (2 Bft) N 355 3 min 0,5 UV-I 147 W/m 8,8 C 17,9 C 16,1 km/h (3 Bft)
05.06.2023 20:09 19,1 C 17,8 C 51 % 1019,2 hPa 0,0 l/m 9,7 km/h (2 Bft) N 351 3 min 0,4 UV-I 140 W/m 8,7 C 17,8 C 16,1 km/h (3 Bft)
05.06.2023 20:12 19,0 C 17,2 C 51 % 1019,3 hPa 0,0 l/m 12,5 km/h (3 Bft) N-NO 19 3 min 0,0 UV-I 132 W/m 8,6 C 16,7 C 19,3 km/h (3 Bft)
05.06.2023 20:15 19,0 C 17,2 C 51 % 1019,2 hPa 0,0 l/m 10,8 km/h (2 Bft) N-NO 12 3 min 0,0 UV-I 124 W/m 8,6 C 17,3 C 16,1 km/h (3 Bft)
05.06.2023 20:18 18,8 C 17,2 C 52 % 1019,2 hPa 0,0 l/m 12,2 km/h (2 Bft) N 5 3 min 0,0 UV-I 115 W/m 8,7 C 16,6 C 22,5 km/h (4 Bft)
05.06.2023 20:21 18,8 C 17,2 C 52 % 1019,2 hPa 0,0 l/m 9,6 km/h (2 Bft) N 5 3 min 0,0 UV-I 108 W/m 8,7 C 17,5 C 16,1 km/h (3 Bft)
05.06.2023 20:24 18,7 C 16,7 C 53 % 1019,2 hPa 0,0 l/m 9,8 km/h (2 Bft) N 5 3 min 0,0 UV-I 101 W/m 8,9 C 17,3 C 17,7 km/h (3 Bft)
05.06.2023 20:27 18,6 C 16,7 C 53 % 1019,2 hPa 0,0 l/m 10,0 km/h (2 Bft) N 355 3 min 0,0 UV-I 93 W/m 8,8 C 17,1 C 20,9 km/h (4 Bft)
05.06.2023 20:30 18,6 C 16,7 C 53 % 1019,3 hPa 0,0 l/m 10,4 km/h (2 Bft) N-NO 15 0 min 0,0 UV-I 56 W/m 8,8 C 17,0 C 19,3 km/h (3 Bft)
05.06.2023 20:33 18,6 C 16,7 C 53 % 1019,3 hPa 0,0 l/m 13,3 km/h (3 Bft) N 355 0 min 0,0 UV-I 44 W/m 8,8 C 16,0 C 20,9 km/h (4 Bft)
05.06.2023 20:36 18,6 C 16,7 C 53 % 1019,3 hPa 0,0 l/m 11,7 km/h (2 Bft) N 350 0 min 0,0 UV-I 42 W/m 8,8 C 16,5 C 17,7 km/h (3 Bft)
05.06.2023 20:39 18,4 C 16,7 C 53 % 1019,3 hPa 0,0 l/m 11,8 km/h (2 Bft) N-NO 14 0 min 0,0 UV-I 40 W/m 8,6 C 16,3 C 17,7 km/h (3 Bft)
05.06.2023 20:42 18,4 C 16,7 C 54 % 1019,3 hPa 0,0 l/m 10,7 km/h (2 Bft) N 5 0 min 0,0 UV-I 39 W/m 8,9 C 16,6 C 19,3 km/h (3 Bft)
05.06.2023 20:45 18,2 C 16,1 C 55 % 1019,2 hPa 0,0 l/m 10,6 km/h (2 Bft) N-NO 15 0 min 0,0 UV-I 37 W/m 9,0 C 16,4 C 17,7 km/h (3 Bft)
05.06.2023 20:48 18,2 C 16,1 C 54 % 1019,3 hPa 0,0 l/m 13,1 km/h (3 Bft) N 360 0 min 0,0 UV-I 35 W/m 8,7 C 15,6 C 17,7 km/h (3 Bft)
05.06.2023 20:51 18,2 C 16,1 C 54 % 1019,2 hPa 0,0 l/m 11,1 km/h (2 Bft) N-NW 348 0 min 0,0 UV-I 33 W/m 8,7 C 16,3 C 20,9 km/h (4 Bft)
05.06.2023 20:54 18,1 C 15,6 C 55 % 1019,2 hPa 0,0 l/m 9,8 km/h (2 Bft) N-NW 338 0 min 0,0 UV-I 32 W/m 8,9 C 16,6 C 16,1 km/h (3 Bft)
05.06.2023 20:57 17,8 C 15,6 C 56 % 1019,3 hPa 0,0 l/m 10,4 km/h (2 Bft) N-NW 328 0 min 0,0 UV-I 30 W/m 8,9 C 16,1 C 14,5 km/h (3 Bft)
05.06.2023 21:00 17,8 C 15,0 C 55 % 1019,3 hPa 0,0 l/m 11,9 km/h (2 Bft) N 360 0 min 0,0 UV-I 28 W/m 8,6 C 15,5 C 16,1 km/h (3 Bft)
05.06.2023 21:03 17,8 C 15,0 C 56 % 1019,3 hPa 0,0 l/m 10,2 km/h (2 Bft) N-NW 346 0 min 0,0 UV-I 26 W/m 8,9 C 16,1 C 12,9 km/h (3 Bft)
05.06.2023 21:06 17,6 C 15,0 C 56 % 1019,3 hPa 0,0 l/m 10,5 km/h (2 Bft) N-NW 333 0 min 0,0 UV-I 25 W/m 8,7 C 15,8 C 14,5 km/h (3 Bft)
05.06.2023 21:09 17,5 C 15,0 C 56 % 1019,3 hPa 0,0 l/m 10,6 km/h (2 Bft) N 349 0 min 0,0 UV-I 23 W/m 8,6 C 15,6 C 16,1 km/h (3 Bft)
05.06.2023 21:12 17,4 C 15,0 C 57 % 1019,3 hPa 0,0 l/m 9,1 km/h (2 Bft) N-NW 348 0 min 0,0 UV-I 21 W/m 8,8 C 16,1 C 16,1 km/h (3 Bft)
05.06.2023 21:15 17,4 C 15,0 C 56 % 1019,3 hPa 0,0 l/m 9,7 km/h (2 Bft) N 360 0 min 0,0 UV-I 19 W/m 8,5 C 15,9 C 16,1 km/h (3 Bft)
05.06.2023 21:18 17,4 C 15,0 C 56 % 1019,3 hPa 0,0 l/m 9,1 km/h (2 Bft) N 360 0 min 0,0 UV-I 18 W/m 8,5 C 16,1 C 14,5 km/h (3 Bft)
05.06.2023 21:21 17,2 C 14,4 C 57 % 1019,2 hPa 0,0 l/m 10,0 km/h (2 Bft) N-NW 334 0 min 0,0 UV-I 16 W/m 8,6 C 15,5 C 14,5 km/h (3 Bft)
05.06.2023 21:24 17,1 C 14,4 C 57 % 1019,4 hPa 0,0 l/m 9,4 km/h (2 Bft) N-NW 332 0 min 0,0 UV-I 13 W/m 8,5 C 15,7 C 16,1 km/h (3 Bft)
05.06.2023 21:27 17,1 C 14,4 C 57 % 1019,3 hPa 0,0 l/m 8,2 km/h (2 Bft) N 355 0 min 0,0 UV-I 12 W/m 8,5 C 16,2 C 12,9 km/h (3 Bft)
05.06.2023 21:30 17,1 C 14,4 C 57 % 1019,4 hPa 0,0 l/m 9,2 km/h (2 Bft) N-NW 332 0 min 0,0 UV-I 11 W/m 8,5 C 15,8 C 14,5 km/h (3 Bft)
05.06.2023 21:33 16,9 C 13,9 C 57 % 1019,4 hPa 0,0 l/m 8,5 km/h (2 Bft) N 349 0 min 0,0 UV-I 8 W/m 8,3 C 15,9 C 14,5 km/h (3 Bft)
05.06.2023 21:36 16,8 C 13,9 C 58 % 1019,4 hPa 0,0 l/m 9,3 km/h (2 Bft) N-NW 343 0 min 0,0 UV-I 7 W/m 8,5 C 15,4 C 14,5 km/h (3 Bft)
05.06.2023 21:39 16,7 C 13,9 C 58 % 1019,5 hPa 0,0 l/m 7,7 km/h (2 Bft) N 355 0 min 0,0 UV-I 5 W/m 8,4 C 16,0 C 12,9 km/h (3 Bft)
05.06.2023 21:42 16,6 C 13,3 C 58 % 1019,4 hPa 0,0 l/m 6,6 km/h (2 Bft) N-NW 342 0 min 0,0 UV-I 3 W/m 8,3 C 16,5 C 9,7 km/h (2 Bft)
05.06.2023 21:45 16,6 C 13,3 C 58 % 1019,4 hPa 0,0 l/m 2,4 km/h (1 Bft) N-NW 340 0 min 0,0 UV-I 0 W/m 8,3 C 16,6 C 6,4 km/h (2 Bft)
05.06.2023 21:48 16,4 C 12,8 C 58 % 1019,5 hPa 0,0 l/m 2,4 km/h (1 Bft) N-NW 343 0 min 0,0 UV-I 0 W/m 8,1 C 16,4 C 6,4 km/h (2 Bft)
05.06.2023 21:51 16,3 C 12,2 C 59 % 1019,6 hPa 0,0 l/m 4,3 km/h (1 Bft) N 355 0 min 0,0 UV-I 0 W/m 8,3 C 16,3 C 8,0 km/h (2 Bft)
05.06.2023 21:54 16,3 C 12,2 C 59 % 1019,6 hPa 0,0 l/m 3,2 km/h (1 Bft) N 350 0 min 0,0 UV-I 0 W/m 8,3 C 16,3 C 6,4 km/h (2 Bft)
05.06.2023 21:57 16,2 C 12,2 C 59 % 1019,6 hPa 0,0 l/m 3,0 km/h (1 Bft) N 355 0 min 0,0 UV-I 0 W/m 8,2 C 16,2 C 8,0 km/h (2 Bft)
05.06.2023 22:00 16,1 C 12,2 C 59 % 1019,6 hPa 0,0 l/m 2,5 km/h (1 Bft) N 355 0 min 0,0 UV-I 0 W/m 8,1 C 16,1 C 4,8 km/h (1 Bft)
05.06.2023 22:03 16,1 C 11,7 C 59 % 1019,6 hPa 0,0 l/m 3,4 km/h (1 Bft) N 355 0 min 0,0 UV-I 0 W/m 8,1 C 16,1 C 6,4 km/h (2 Bft)
05.06.2023 22:06 16,0 C 11,7 C 60 % 1019,8 hPa 0,0 l/m 2,6 km/h (1 Bft) N 355 0 min 0,0 UV-I 0 W/m 8,2 C 16,0 C 4,8 km/h (1 Bft)
05.06.2023 22:09 15,8 C 11,7 C 60 % 1019,8 hPa 0,0 l/m 3,4 km/h (1 Bft) N 355 0 min 0,0 UV-I 0 W/m 8,1 C 15,8 C 4,8 km/h (1 Bft)
05.06.2023 22:12 15,7 C 11,7 C 61 % 1019,8 hPa 0,0 l/m 4,8 km/h (1 Bft) N 5 0 min 0,0 UV-I 0 W/m 8,2 C 15,7 C 8,0 km/h (2 Bft)
05.06.2023 22:15 15,4 C 11,1 C 62 % 1019,7 hPa 0,0 l/m 3,8 km/h (1 Bft) N 355 0 min 0,0 UV-I 0 W/m 8,2 C 15,4 C 6,4 km/h (2 Bft)
05.06.2023 22:18 15,2 C 11,1 C 62 % 1019,7 hPa 0,0 l/m 4,1 km/h (1 Bft) N 5 0 min 0,0 UV-I 0 W/m 8,0 C 15,2 C 6,4 km/h (2 Bft)
05.06.2023 22:21 15,1 C 11,1 C 63 % 1019,8 hPa 0,0 l/m 3,2 km/h (1 Bft) N 5 0 min 0,0 UV-I 0 W/m 8,1 C 15,1 C 4,8 km/h (1 Bft)
05.06.2023 22:24 14,9 C 11,1 C 63 % 1019,8 hPa 0,0 l/m 2,8 km/h (1 Bft) N 5 0 min 0,0 UV-I 0 W/m 7,9 C 14,9 C 4,8 km/h (1 Bft)
05.06.2023 22:27 14,8 C 10,6 C 63 % 1019,7 hPa 0,0 l/m 2,8 km/h (1 Bft) N 5 0 min 0,0 UV-I 0 W/m 7,8 C 14,8 C 4,8 km/h (1 Bft)
05.06.2023 22:30 14,8 C 11,1 C 64 % 1019,7 hPa 0,0 l/m 3,7 km/h (1 Bft) N 5 0 min 0,0 UV-I 0 W/m 8,1 C 14,8 C 4,8 km/h (1 Bft)
05.06.2023 22:33 14,7 C 11,1 C 64 % 1019,7 hPa 0,0 l/m 4,0 km/h (1 Bft) N 5 0 min 0,0 UV-I 0 W/m 8,0 C 14,7 C 6,4 km/h (2 Bft)
05.06.2023 22:36 14,6 C 10,6 C 64 % 1019,7 hPa 0,0 l/m 4,1 km/h (1 Bft) N 5 0 min 0,0 UV-I 0 W/m 7,9 C 14,6 C 6,4 km/h (2 Bft)
05.06.2023 22:39 14,6 C 10,6 C 64 % 1019,7 hPa 0,0 l/m 4,8 km/h (1 Bft) N-NO 13 0 min 0,0 UV-I 0 W/m 7,9 C 14,6 C 12,9 km/h (3 Bft)
05.06.2023 22:42 14,6 C 10,6 C 64 % 1019,7 hPa 0,0 l/m 4,0 km/h (1 Bft) N-NO 13 0 min 0,0 UV-I 0 W/m 7,9 C 14,6 C 6,4 km/h (2 Bft)
05.06.2023 22:45 14,6 C 10,6 C 64 % 1019,7 hPa 0,0 l/m 3,8 km/h (1 Bft) N 5 0 min 0,0 UV-I 0 W/m 7,9 C 14,6 C 9,7 km/h (2 Bft)
05.06.2023 22:48 14,7 C 10,6 C 64 % 1019,7 hPa 0,0 l/m 4,9 km/h (1 Bft) N 360 0 min 0,0 UV-I 0 W/m 8,0 C 14,7 C 8,0 km/h (2 Bft)
05.06.2023 22:51 14,7 C 10,6 C 64 % 1019,7 hPa 0,0 l/m 6,1 km/h (2 Bft) N 355 0 min 0,0 UV-I 0 W/m 8,0 C 14,7 C 8,0 km/h (2 Bft)
05.06.2023 22:54 14,6 C 10,6 C 64 % 1019,7 hPa 0,0 l/m 7,3 km/h (2 Bft) N 355 0 min 0,0 UV-I 0 W/m 7,9 C 14,1 C 9,7 km/h (2 Bft)
05.06.2023 22:57 14,6 C 10,6 C 64 % 1019,7 hPa 0,0 l/m 6,6 km/h (2 Bft) N 5 0 min 0,0 UV-I 0 W/m 7,9 C 14,5 C 12,9 km/h (3 Bft)
05.06.2023 23:00 14,7 C 11,1 C 64 % 1019,7 hPa 0,0 l/m 6,4 km/h (2 Bft) N 350 0 min 0,0 UV-I 0 W/m 8,0 C 14,7 C 14,5 km/h (3 Bft)
05.06.2023 23:03 14,7 C 11,1 C 64 % 1019,7 hPa 0,0 l/m 6,4 km/h (2 Bft) N-NW 346 0 min 0,0 UV-I 0 W/m 8,0 C 14,7 C 12,9 km/h (3 Bft)
05.06.2023 23:06 14,6 C 11,1 C 64 % 1019,7 hPa 0,0 l/m 6,8 km/h (2 Bft) N-NW 344 0 min 0,0 UV-I 0 W/m 7,9 C 14,4 C 14,5 km/h (3 Bft)
05.06.2023 23:09 14,6 C 10,6 C 64 % 1019,7 hPa 0,0 l/m 6,6 km/h (2 Bft) N 360 0 min 0,0 UV-I 0 W/m 7,9 C 14,5 C 9,7 km/h (2 Bft)
05.06.2023 23:12 14,4 C 10,6 C 65 % 1019,6 hPa 0,0 l/m 6,4 km/h (2 Bft) N 360 0 min 0,0 UV-I 0 W/m 7,9 C 14,4 C 9,7 km/h (2 Bft)
05.06.2023 23:15 14,3 C 10,6 C 65 % 1019,6 hPa 0,0 l/m 5,3 km/h (1 Bft) N 5 0 min 0,0 UV-I 0 W/m 7,8 C 14,3 C 9,7 km/h (2 Bft)
05.06.2023 23:18 14,1 C 10,0 C 66 % 1019,7 hPa 0,0 l/m 4,9 km/h (1 Bft) N 349 0 min 0,0 UV-I 0 W/m 7,8 C 14,1 C 6,4 km/h (2 Bft)
05.06.2023 23:21 13,8 C 9,4 C 67 % 1019,8 hPa 0,0 l/m 2,1 km/h (1 Bft) N 349 0 min 0,0 UV-I 0 W/m 7,8 C 13,8 C 3,2 km/h (1 Bft)
05.06.2023 23:24 13,4 C 9,4 C 68 % 1019,7 hPa 0,0 l/m 3,0 km/h (1 Bft) N 349 0 min 0,0 UV-I 0 W/m 7,6 C 13,4 C 4,8 km/h (1 Bft)
05.06.2023 23:27 13,6 C 10,0 C 67 % 1019,8 hPa 0,0 l/m 0,8 km/h (0 Bft) N 349 0 min 0,0 UV-I 0 W/m 7,6 C 13,6 C 3,2 km/h (1 Bft)
05.06.2023 23:30 13,8 C 9,4 C 67 % 1019,8 hPa 0,0 l/m 1,5 km/h (1 Bft) N 349 0 min 0,0 UV-I 0 W/m 7,8 C 13,8 C 3,2 km/h (1 Bft)
05.06.2023 23:33 13,7 C 9,4 C 67 % 1019,8 hPa 0,0 l/m 0,3 km/h (0 Bft) N 349 0 min 0,0 UV-I 0 W/m 7,7 C 13,7 C 1,6 km/h (1 Bft)
05.06.2023 23:36 13,3 C 9,4 C 68 % 1019,8 hPa 0,0 l/m 0,3 km/h (0 Bft) N 349 0 min 0,0 UV-I 0 W/m 7,5 C 13,3 C 1,6 km/h (1 Bft)
05.06.2023 23:39 13,2 C 8,9 C 68 % 1019,8 hPa 0,0 l/m 0,7 km/h (0 Bft) N 349 0 min 0,0 UV-I 0 W/m 7,4 C 13,2 C 1,6 km/h (1 Bft)
05.06.2023 23:42 13,3 C 9,4 C 68 % 1019,8 hPa 0,0 l/m 2,0 km/h (1 Bft) N 349 0 min 0,0 UV-I 0 W/m 7,5 C 13,3 C 3,2 km/h (1 Bft)
05.06.2023 23:45 13,3 C 9,4 C 68 % 1019,8 hPa 0,0 l/m 0,1 km/h (0 Bft) N 349 0 min 0,0 UV-I 0 W/m 7,5 C 13,3 C 1,6 km/h (1 Bft)
05.06.2023 23:48 13,1 C 8,9 C 69 % 1019,8 hPa 0,0 l/m 0,0 km/h (0 Bft) N 349 0 min 0,0 UV-I 0 W/m 7,5 C 13,1 C 0,0 km/h (0 Bft)
05.06.2023 23:51 12,8 C 9,4 C 70 % 1019,8 hPa 0,0 l/m 0,7 km/h (0 Bft) N 349 0 min 0,0 UV-I 0 W/m 7,5 C 12,8 C 3,2 km/h (1 Bft)
05.06.2023 23:54 12,9 C 9,4 C 69 % 1019,8 hPa 0,0 l/m 1,4 km/h (1 Bft) N 349 0 min 0,0 UV-I 0 W/m 7,4 C 12,9 C 3,2 km/h (1 Bft)
05.06.2023 23:57 13,1 C 9,4 C 69 % 1019,8 hPa 0,0 l/m 2,6 km/h (1 Bft) N 349 0 min 0,0 UV-I 0 W/m 7,5 C 13,1 C 4,8 km/h (1 Bft)
_ Min-Zeit 05:36 04:48 11:42 18:48 - 00:27 - - - - - 05:36 05:36 00:42
Minimum _ 3,9 C 2,2 C 37 % 1019,0 hPa - 0,0 km/h (0 Bft) - - - - - 1,8 C 3,9 C 0,0 km/h (0 Bft)
_ Max-Zeit 16:21 17:03 04:42 01:42 00:00 11:00 - - 08:07 13:09 13:27 15:09 17:12 13:45
Maximum _ 22,3 C 32,2 C 87 % 1021,9 hPa 0,0 l/m 19,6 km/h
N-NO (3 Bft)
- - 4 min 6,1 UV-I 880 W/m 9,9 C 22,3 C 32,2 km/h
NO (5 Bft)
Durchschnitt _ 15,0 C 16,3 C 60 % 1020,5 hPa #0,0 l/m 6,5 km/h (2 Bft) N - #13:06 h 3,5 UV-I 483 W/m 6,5 C 14,1 C 11,0 km/h (2 Bft)